| time (UTC) | temp C | wind direction | speed KPH | gust KPH | rain 1hr cm | rain 24hr cm | rain mn cm | humidity % | barometer mb |
| 20260508133350 | 7 | 355 | 0.0 | 12.9 | 0.00 | 0.00 | 0.00 | 41 | 1010.3 |
| 20260508133309 | 7 | 340 | 1.6 | 12.9 | 0.00 | 0.00 | 0.00 | 42 | 1010.3 |
| 20260508133118 | 7 | 309 | 3.2 | 12.9 | 0.00 | 0.00 | 0.00 | 39 | 1010.3 |
| 20260508132959 | 7 | 281 | 3.2 | 12.9 | 0.00 | 0.00 | 0.00 | 39 | 1010.3 |
| 20260508132841 | 7 | 268 | 3.2 | 12.9 | 0.00 | 0.00 | 0.00 | 41 | 1010.3 |
| 20260508132804 | 7 | 274 | 3.2 | 12.9 | 0.00 | 0.00 | 0.00 | 41 | 1010.3 |
| 20260508132718 | 7 | 225 | 4.8 | 12.9 | 0.00 | 0.00 | 0.00 | 41 | 1010.3 |
| 20260508132547 | 7 | 322 | 6.4 | 14.5 | 0.00 | 0.00 | 0.00 | 41 | 1010.3 |
| 20260508132449 | 7 | 315 | 8.0 | 14.5 | 0.00 | 0.00 | 0.00 | 41 | 1010.3 |
| 20260508132323 | 7 | 286 | 3.2 | 14.5 | 0.00 | 0.00 | 0.00 | 39 | 1010.2 |
| 20260508132229 | 7 | 331 | 4.8 | 14.5 | 0.00 | 0.00 | 0.00 | 39 | 1010.3 |
| 20260508132134 | 7 | 295 | 4.8 | 14.5 | 0.00 | 0.00 | 0.00 | 40 | 1010.2 |
| 20260508131945 | 7 | 319 | 4.8 | 14.5 | 0.00 | 0.00 | 0.00 | 39 | 1010.2 |
| 20260508131838 | 7 | 200 | 8.0 | 14.5 | 0.00 | 0.00 | 0.00 | 39 | 1010.2 |
| 20260508131743 | 7 | 240 | 6.4 | 14.5 | 0.00 | 0.00 | 0.00 | 38 | 1010.2 |
| 20260508131646 | 7 | 259 | 4.8 | 9.7 | 0.00 | 0.00 | 0.00 | 38 | 1010.2 |
| 20260508131529 | 7 | 327 | 4.8 | 14.5 | 0.00 | 0.00 | 0.00 | 39 | 1010.2 |
| 20260508131431 | 7 | 313 | 4.8 | 14.5 | 0.00 | 0.00 | 0.00 | 38 | 1010.2 |
| 20260508131354 | 7 | 322 | 4.8 | 14.5 | 0.00 | 0.00 | 0.00 | 38 | 1010.2 |
| 20260508131316 | 7 | 304 | 4.8 | 14.5 | 0.00 | 0.00 | 0.00 | 38 | 1010.2 |
| 20260508131124 | 7 | 307 | 4.8 | 14.5 | 0.00 | 0.00 | 0.00 | 37 | 1010.2 |
| 20260508131037 | 7 | 290 | 6.4 | 14.5 | 0.00 | 0.00 | 0.00 | 37 | 1010.2 |
| 20260508130909 | 7 | 317 | 6.4 | 16.1 | 0.00 | 0.00 | 0.00 | 37 | 1010.2 |
| 20260508130831 | 7 | 326 | 8.0 | 16.1 | 0.00 | 0.00 | 0.00 | 37 | 1010.2 |
| 20260508130633 | 7 | 302 | 4.8 | 16.1 | 0.00 | 0.00 | 0.00 | 34 | 1010.2 |
| 20260508130557 | 7 | 315 | 3.2 | 16.1 | 0.00 | 0.00 | 0.00 | 34 | 1010.2 |
| 20260508130500 | 7 | 282 | 1.6 | 16.1 | 0.00 | 0.00 | 0.00 | 30 | 1010.1 |
| 20260508130344 | 7 | 244 | 4.8 | 16.1 | 0.00 | 0.00 | 0.00 | 32 | 1010.1 |
| 20260508130227 | 7 | 259 | 6.4 | 16.1 | 0.00 | 0.00 | 0.00 | 32 | 1010.2 |
| 20260508130148 | 7 | 329 | 4.8 | 16.1 | 0.00 | 0.00 | 0.00 | 32 | 1010.2 |
| 20260508130019 | 7 | 325 | 1.6 | 9.7 | 0.00 | 0.00 | 0.00 | 31 | 1010.1 |
| 20260508125933 | 7 | 284 | 1.6 | 9.7 | 0.00 | 0.00 | 0.00 | 31 | 1010.1 |
| 20260508125718 | 7 | 284 | 1.6 | 9.7 | 0.00 | 0.00 | 0.00 | 32 | 1010.1 |
| 20260508125639 | 7 | 282 | 1.6 | 9.7 | 0.00 | 0.00 | 0.00 | 32 | 1010.1 |
| 20260508125445 | 7 | 161 | 6.4 | 9.7 | 0.00 | 0.00 | 0.00 | 29 | 1010.1 |
| 20260508125407 | 7 | 178 | 6.4 | 9.7 | 0.00 | 0.00 | 0.00 | 29 | 1010.1 |
| 20260508125311 | 7 | 164 | 6.4 | 9.7 | 0.00 | 0.00 | 0.00 | 30 | 1010.1 |
| 20260508125211 | 7 | 210 | 4.8 | 8.0 | 0.00 | 0.00 | 0.00 | 29 | 1010.1 |
| 20260508125022 | 7 | 59 | 1.6 | 8.0 | 0.00 | 0.00 | 0.00 | 20 | 1010.1 |
| 20260508124932 | 7 | 92 | 1.6 | 8.0 | 0.00 | 0.00 | 0.00 | 23 | 1010.1 |
| 20260508124724 | 7 | 360 | 1.6 | 8.0 | 0.00 | 0.00 | 0.00 | 25 | 1010.1 |
| 20260508124637 | 7 | 5 | 1.6 | 11.3 | 0.00 | 0.00 | 0.00 | 25 | 1010.1 |
| 20260508124509 | 7 | 255 | 1.6 | 11.3 | 0.00 | 0.00 | 0.00 | 24 | 1010.1 |
| 20260508124431 | 7 | 255 | 3.2 | 11.3 | 0.00 | 0.00 | 0.00 | 24 | 1010.1 |
| 20260508124233 | 7 | 236 | 3.2 | 11.3 | 0.00 | 0.00 | 0.00 | 24 | 1010.3 |
| 20260508124155 | 7 | 177 | 3.2 | 11.3 | 0.00 | 0.00 | 0.00 | 23 | 1010.3 |
| 20260508124040 | 6 | 244 | 3.2 | 11.3 | 0.00 | 0.00 | 0.00 | 22 | 1010.2 |
| 20260508124000 | 6 | 258 | 4.8 | 11.3 | 0.00 | 0.00 | 0.00 | 21 | 1010.2 |
| 20260508123840 | 6 | 225 | 6.4 | 11.3 | 0.00 | 0.00 | 0.00 | 20 | 1010.2 |
| 20260508123759 | 6 | 227 | 6.4 | 11.3 | 0.00 | 0.00 | 0.00 | 21 | 1010.1 |
| 20260508123610 | 6 | 148 | 6.4 | 11.3 | 0.00 | 0.00 | 0.00 | 22 | 1010.1 |
| 20260508123521 | 6 | 169 | 6.4 | 11.3 | 0.00 | 0.00 | 0.00 | 20 | 1010.1 |
| 20260508123349 | 6 | 180 | 6.4 | 11.3 | 0.00 | 0.00 | 0.00 | 20 | 1010.1 |
| 20260508123246 | 6 | 171 | 8.0 | 11.3 | 0.00 | 0.00 | 0.00 | 19 | 1010.1 |
| 20260508123026 | 6 | 184 | 4.8 | 8.0 | 0.00 | 0.00 | 0.00 | 12 | 1010.1 |
| 20260508122928 | 6 | 158 | 6.4 | 8.0 | 0.00 | 0.00 | 0.00 | 8 | 1010.1 |
| 20260508122832 | 6 | 203 | 6.4 | 8.0 | 0.00 | 0.00 | 0.00 | 6 | 1010.1 |
| 20260508122753 | 6 | 152 | 6.4 | 8.0 | 0.00 | 0.00 | 0.00 | 7 | 1010.1 |
| 20260508122715 | 6 | 187 | 4.8 | 9.7 | 0.00 | 0.00 | 0.00 | 3 | 1010.1 |
| 20260508122619 | 6 | 173 | 4.8 | 9.7 | 0.00 | 0.00 | 0.00 | 1 | 1010.0 |
| 20260508122354 | 6 | 136 | 3.2 | 8.0 | 0.00 | 0.00 | 0.00 | 1 | 1010.1 |
| 20260508122246 | 6 | 140 | 3.2 | 8.0 | 0.00 | 0.00 | 0.00 | 1 | 1010.1 |
| 20260508122117 | 6 | 165 | 3.2 | 9.7 | 0.00 | 0.00 | 0.00 | 1 | 1010.0 |
| 20260508122039 | 6 | 131 | 3.2 | 9.7 | 0.00 | 0.00 | 0.00 | 1 | 1010.0 |
| 20260508121911 | 6 | 154 | 3.2 | 9.7 | 0.00 | 0.00 | 0.00 | 1 | 1010.1 |
| 20260508121835 | 6 | 159 | 3.2 | 9.7 | 0.00 | 0.00 | 0.00 | 1 | 1010.1 |
| 20260508121625 | 6 | 159 | 4.8 | 9.7 | 0.00 | 0.00 | 0.00 | 1 | 1010.1 |
| 20260508121539 | 6 | 144 | 4.8 | 9.7 | 0.00 | 0.00 | 0.00 | 1 | 1010.0 |
| 20260508121443 | 6 | 162 | 4.8 | 9.7 | 0.00 | 0.00 | 0.00 | 1 | 1010.0 |
| 20260508121323 | 6 | 171 | 4.8 | 9.7 | 0.00 | 0.00 | 0.00 | 1 | 1010.0 |
| 20260508121237 | 6 | 165 | 4.8 | 9.7 | 0.00 | 0.00 | 0.00 | 1 | 1010.0 |
| 20260508121108 | 6 | 213 | 6.4 | 9.7 | 0.00 | 0.00 | 0.00 | 1 | 1010.0 |
| 20260508121029 | 6 | 184 | 6.4 | 9.7 | 0.00 | 0.00 | 0.00 | 1 | 1010.0 |
| 20260508120832 | 6 | 186 | 4.8 | 9.7 | 0.00 | 0.00 | 0.00 | 1 | 1010.0 |
| 20260508120754 | 5 | 178 | 6.4 | 9.7 | 0.00 | 0.00 | 0.00 | 1 | 1010.0 |
| 20260508120656 | 5 | 187 | 4.8 | 9.7 | 0.00 | 0.00 | 0.00 | 1 | 1010.0 |
| 20260508120619 | 5 | 178 | 3.2 | 9.7 | 0.00 | 0.00 | 0.00 | 1 | 1009.9 |
| 20260508120423 | 5 | 90 | 1.6 | 6.4 | 0.00 | 0.00 | 0.00 | 1 | 1009.8 |
| 20260508120326 | 5 | 88 | 3.2 | 6.4 | 0.00 | 0.00 | 0.00 | 1 | 1009.8 |
| 20260508120232 | 5 | 89 | 4.8 | 6.4 | 0.00 | 0.00 | 0.00 | 1 | 1009.8 |
| 20260508120154 | 5 | 92 | 4.8 | 6.4 | 0.00 | 0.00 | 0.00 | 1 | 1009.8 |
| 20260508120115 | 5 | 107 | 4.8 | 6.4 | 0.00 | 0.00 | 0.00 | 1 | 1009.8 |
| 20260508115947 | 5 | 140 | 1.6 | 4.8 | 0.00 | 0.00 | 0.00 | 1 | 1009.8 |
| 20260508115840 | 5 | 162 | 1.6 | 4.8 | 0.00 | 0.00 | 0.00 | 1 | 1009.8 |
| 20260508115743 | 5 | 113 | 0.0 | 4.8 | 0.00 | 0.00 | 0.00 | 1 | 1009.8 |
| 20260508115638 | 5 | 98 | 0.0 | 4.8 | 0.00 | 0.00 | 0.00 | 1 | 1009.8 |
| 20260508115538 | 4 | 99 | 0.0 | 4.8 | 0.00 | 0.00 | 0.00 | 1 | 1009.8 |
| 20260508115454 | 4 | 103 | 1.6 | 4.8 | 0.00 | 0.00 | 0.00 | 1 | 1009.8 |
| 20260508115406 | 4 | 103 | 1.6 | 4.8 | 0.00 | 0.00 | 0.00 | 1 | 1009.8 |
| 20260508115223 | 4 | 110 | 1.6 | 4.8 | 0.00 | 0.00 | 0.00 | 1 | 1009.8 |
| 20260508115126 | 3 | 110 | 1.6 | 4.8 | 0.00 | 0.00 | 0.00 | 1 | 1009.9 |
| 20260508115030 | 3 | 110 | 1.6 | 4.8 | 0.00 | 0.00 | 0.00 | 1 | 1009.8 |
| 20260508114953 | 3 | 110 | 3.2 | 4.8 | 0.00 | 0.00 | 0.00 | 1 | 1009.8 |
| 20260508114916 | 3 | 111 | 1.6 | 4.8 | 0.00 | 0.00 | 0.00 | 1 | 1009.8 |
| 20260508114739 | 3 | 14 | 1.6 | 4.8 | 0.00 | 0.00 | 0.00 | 1 | 1009.8 |
| 20260508114659 | 3 | 360 | 1.6 | 4.8 | 0.00 | 0.00 | 0.00 | 1 | 1009.8 |
| 20260508114531 | 3 | 107 | 3.2 | 6.4 | 0.00 | 0.00 | 0.00 | 1 | 1009.8 |
| 20260508114425 | 3 | 129 | 1.6 | 6.4 | 0.00 | 0.00 | 0.00 | 1 | 1009.8 |
| 20260508114243 | 3 | 337 | 0.0 | 6.4 | 0.00 | 0.00 | 0.00 | 1 | 1009.8 |
| 20260508114146 | 3 | 360 | 0.0 | 6.4 | 0.00 | 0.00 | 0.00 | 1 | 1009.8 |
| 20260508114055 | 3 | 106 | 1.6 | 6.4 | 0.00 | 0.00 | 0.00 | 1 | 1009.7 |
| 20260508114016 | 3 | 144 | 1.6 | 6.4 | 0.00 | 0.00 | 0.00 | 1 | 1009.7 |
| 20260508113846 | 3 | 180 | 3.2 | 6.4 | 0.00 | 0.00 | 0.00 | 1 | 1009.7 |
| 20260508113749 | 3 | 219 | 4.8 | 6.4 | 0.00 | 0.00 | 0.00 | 1 | 1009.7 |
| 20260508113645 | 3 | 227 | 3.2 | 6.4 | 0.00 | 0.00 | 0.00 | 1 | 1009.7 |
| 20260508113528 | 2 | 177 | 3.2 | 6.4 | 0.00 | 0.00 | 0.00 | 1 | 1009.7 |
| 20260508113451 | 2 | 173 | 3.2 | 6.4 | 0.00 | 0.00 | 0.00 | 1 | 1009.7 |
| 20260508113414 | 2 | 186 | 3.2 | 6.4 | 0.00 | 0.00 | 0.00 | 1 | 1009.8 |
| 20260508113237 | 2 | 211 | 1.6 | 6.4 | 0.00 | 0.00 | 0.00 | 1 | 1009.7 |
| 20260508113159 | 2 | 233 | 1.6 | 6.4 | 0.00 | 0.00 | 0.00 | 1 | 1009.7 |
| 20260508113117 | 2 | 213 | 0.0 | 1.6 | 0.00 | 0.00 | 0.00 | 1 | 1009.7 |
| 20260508112928 | 2 | 338 | 0.0 | 1.6 | 0.00 | 0.00 | 0.00 | 1 | 1009.7 |
| 20260508112844 | 2 | 332 | 0.0 | 1.6 | 0.00 | 0.00 | 0.00 | 1 | 1009.7 |
| 20260508112715 | 2 | 332 | 0.0 | 1.6 | 0.00 | 0.00 | 0.00 | 1 | 1009.7 |
| 20260508112614 | 2 | 331 | 0.0 | 1.6 | 0.00 | 0.00 | 0.00 | 1 | 1009.8 |
| 20260508112519 | 2 | 331 | 0.0 | 1.6 | 0.00 | 0.00 | 0.00 | 1 | 1009.7 |
| 20260508112442 | 2 | 331 | 0.0 | 1.6 | 0.00 | 0.00 | 0.00 | 1 | 1009.7 |
| 20260508112311 | 2 | 200 | 0.0 | 1.6 | 0.00 | 0.00 | 0.00 | 1 | 1009.7 |
| 20260508112225 | 2 | 200 | 0.0 | 1.6 | 0.00 | 0.00 | 0.00 | 1 | 1009.7 |
| 20260508112034 | 2 | 181 | 0.0 | 1.6 | 0.00 | 0.00 | 0.00 | 1 | 1009.6 |
| 20260508111951 | 2 | 65 | 0.0 | 1.6 | 0.00 | 0.00 | 0.00 | 1 | 1009.6 |
| 20260508111917 | 2 | 62 | 0.0 | 1.6 | 0.00 | 0.00 | 0.00 | 1 | 1009.6 |
| 20260508111733 | 2 | 36 | 0.0 | 1.6 | 0.00 | 0.00 | 0.00 | 1 | 1009.6 |
| 20260508111648 | 2 | 36 | 0.0 | 1.6 | 0.00 | 0.00 | 0.00 | 1 | 1009.6 |
| 20260508111508 | 2 | 36 | 0.0 | 1.6 | 0.00 | 0.00 | 0.00 | 1 | 1009.5 |
| 20260508111429 | 2 | 36 | 0.0 | 1.6 | 0.00 | 0.00 | 0.00 | 1 | 1009.5 |
| 20260508111232 | 2 | 36 | 0.0 | 1.6 | 0.00 | 0.00 | 0.00 | 1 | 1009.5 |
| 20260508111153 | 2 | 36 | 0.0 | 1.6 | 0.00 | 0.00 | 0.00 | 1 | 1009.5 |
| 20260508111058 | 2 | 36 | 0.0 | 1.6 | 0.00 | 0.00 | 0.00 | 1 | 1009.6 |
| 20260508110958 | 2 | 36 | 0.0 | 1.6 | 0.00 | 0.00 | 0.00 | 1 | 1009.6 |
| 20260508110900 | 2 | 36 | 0.0 | 3.2 | 0.00 | 0.00 | 0.00 | 1 | 1009.6 |
| 20260508110748 | 1 | 261 | 0.0 | 3.2 | 0.00 | 0.00 | 0.00 | 1 | 1009.5 |
| 20260508110648 | 1 | 261 | 0.0 | 3.2 | 0.00 | 0.00 | 0.00 | 1 | 1009.5 |
| 20260508110520 | 1 | 261 | 0.0 | 3.2 | 0.00 | 0.00 | 0.00 | 1 | 1009.5 |
| 20260508110414 | 1 | 261 | 0.0 | 3.2 | 0.00 | 0.00 | 0.00 | 1 | 1009.5 |
| 20260508110225 | 1 | 336 | 1.6 | 3.2 | 0.00 | 0.00 | 0.00 | 1 | 1009.4 |
| 20260508110138 | 1 | 340 | 1.6 | 3.2 | 0.00 | 0.00 | 0.00 | 1 | 1009.4 |
| 20260508105926 | 1 | 346 | 1.6 | 3.2 | 0.00 | 0.00 | 0.00 | 1 | 1009.4 |
| 20260508105843 | 1 | 32 | 0.0 | 1.6 | 0.00 | 0.00 | 0.00 | 1 | 1009.4 |
| 20260508105805 | 1 | 32 | 0.0 | 1.6 | 0.00 | 0.00 | 0.00 | 1 | 1009.4 |
| 20260508105727 | 1 | 267 | 0.0 | 1.6 | 0.00 | 0.00 | 0.00 | 1 | 1009.4 |
| 20260508105619 | 1 | 267 | 0.0 | 1.6 | 0.00 | 0.00 | 0.00 | 1 | 1009.4 |
| 20260508105434 | 1 | 267 | 0.0 | 1.6 | 0.00 | 0.00 | 0.00 | 1 | 1009.4 |
| 20260508105329 | 1 | 267 | 0.0 | 1.6 | 0.00 | 0.00 | 0.00 | 1 | 1009.4 |
| 20260508105224 | 1 | 350 | 0.0 | 1.6 | 0.00 | 0.00 | 0.00 | 1 | 1009.4 |
| 20260508105156 | 1 | 347 | 0.0 | 1.6 | 0.00 | 0.00 | 0.00 | 1 | 1009.4 |
| 20260508105117 | 1 | 313 | 0.0 | 1.6 | 0.00 | 0.00 | 0.00 | 1 | 1009.4 |
| 20260508105021 | 1 | 313 | 0.0 | 1.6 | 0.00 | 0.00 | 0.00 | 1 | 1009.3 |
| 20260508104943 | 1 | 253 | 0.0 | 1.6 | 0.00 | 0.00 | 0.00 | 1 | 1009.3 |
| 20260508104812 | 1 | 323 | 0.0 | 1.6 | 0.00 | 0.00 | 0.00 | 1 | 1009.4 |
| 20260508104727 | 1 | 323 | 0.0 | 1.6 | 0.00 | 0.00 | 0.00 | 1 | 1009.4 |
| 20260508104540 | 1 | 333 | 0.0 | 1.6 | 0.00 | 0.00 | 0.00 | 1 | 1009.3 |
| 20260508104504 | 1 | 336 | 0.0 | 1.6 | 0.00 | 0.00 | 0.00 | 1 | 1009.3 |
| 20260508104419 | 1 | 336 | 0.0 | 1.6 | 0.00 | 0.00 | 0.00 | 1 | 1009.4 |
| 20260508104229 | 1 | 312 | 0.0 | 1.6 | 0.00 | 0.00 | 0.00 | 1 | 1009.3 |
| 20260508104123 | 1 | 312 | 0.0 | 1.6 | 0.00 | 0.00 | 0.00 | 1 | 1009.2 |
| 20260508104046 | 1 | 311 | 0.0 | 1.6 | 0.00 | 0.00 | 0.00 | 1 | 1009.2 |
| 20260508103952 | 1 | 15 | 0.0 | 1.6 | 0.00 | 0.00 | 0.00 | 1 | 1009.2 |
| 20260508103915 | 1 | 15 | 0.0 | 1.6 | 0.00 | 0.00 | 0.00 | 1 | 1009.2 |
| 20260508103718 | 0 | 41 | 0.0 | 1.6 | 0.00 | 0.00 | 0.00 | 1 | 1009.2 |
| 20260508103635 | 0 | 41 | 0.0 | 1.6 | 0.00 | 0.00 | 0.00 | 1 | 1009.2 |
| 20260508103539 | 0 | 41 | 0.0 | 1.6 | 0.00 | 0.00 | 0.00 | 1 | 1009.2 |
| 20260508103443 | 0 | 308 | 0.0 | 1.6 | 0.00 | 0.00 | 0.00 | 1 | 1009.2 |
| 20260508103406 | 0 | 308 | 0.0 | 1.6 | 0.00 | 0.00 | 0.00 | 1 | 1009.2 |
| 20260508103308 | 0 | 308 | 0.0 | 1.6 | 0.00 | 0.00 | 0.00 | 1 | 1009.1 |
| 20260508103229 | 0 | 308 | 0.0 | 1.6 | 0.00 | 0.00 | 0.00 | 1 | 1009.1 |
| 20260508103033 | 0 | 305 | 0.0 | 3.2 | 0.00 | 0.00 | 0.00 | 1 | 1009.1 |
| 20260508102955 | 0 | 350 | 0.0 | 3.2 | 0.00 | 0.00 | 0.00 | 1 | 1009.1 |
| 20260508102837 | 0 | 350 | 0.0 | 3.2 | 0.00 | 0.00 | 0.00 | 1 | 1009.1 |
| 20260508102810 | 0 | 25 | 0.0 | 3.2 | 0.00 | 0.00 | 0.00 | 1 | 1009.1 |
| 20260508102714 | 0 | 25 | 0.0 | 3.2 | 0.00 | 0.00 | 0.00 | 1 | 1009.1 |
| 20260508102618 | 0 | 31 | 0.0 | 3.2 | 0.00 | 0.00 | 0.00 | 1 | 1009.1 |
| 20260508102540 | 0 | 34 | 0.0 | 3.2 | 0.00 | 0.00 | 0.00 | 1 | 1009.1 |
| 20260508102409 | 0 | 34 | 1.6 | 3.2 | 0.00 | 0.00 | 0.00 | 1 | 1009.1 |
| 20260508102323 | 0 | 337 | 0.0 | 3.2 | 0.00 | 0.00 | 0.00 | 1 | 1009.1 |
| 20260508102134 | 0 | 340 | 1.6 | 3.2 | 0.00 | 0.00 | 0.00 | 1 | 1009.0 |
| 20260508102047 | 0 | 340 | 1.6 | 3.2 | 0.00 | 0.00 | 0.00 | 1 | 1009.0 |
| 20260508101836 | 0 | 340 | 0.0 | 3.2 | 0.00 | 0.00 | 0.00 | 1 | 1009.0 |
| 20260508101751 | 0 | 340 | 0.0 | 3.2 | 0.00 | 0.00 | 0.00 | 1 | 1009.0 |
| 20260508101539 | 0 | 238 | 0.0 | 3.2 | 0.00 | 0.00 | 0.00 | 1 | 1009.0 |
| 20260508101439 | 0 | 238 | 1.6 | 3.2 | 0.00 | 0.00 | 0.00 | 1 | 1009.0 |
| 20260508101322 | 0 | 238 | 0.0 | 3.2 | 0.00 | 0.00 | 0.00 | 1 | 1009.0 |
| 20260508101244 | 0 | 237 | 0.0 | 0.0 | 0.00 | 0.00 | 0.00 | 1 | 1009.0 |
| 20260508101205 | 0 | 237 | 0.0 | 1.6 | 0.00 | 0.00 | 0.00 | 1 | 1009.0 |
| 20260508101110 | 0 | 237 | 0.0 | 1.6 | 0.00 | 0.00 | 0.00 | 1 | 1009.0 |
| 20260508101032 | 0 | 237 | 0.0 | 1.6 | 0.00 | 0.00 | 0.00 | 1 | 1009.0 |
| 20260508100836 | 0 | 237 | 0.0 | 1.6 | 0.00 | 0.00 | 0.00 | 1 | 1009.0 |
| 20260508100736 | 0 | 237 | 0.0 | 1.6 | 0.00 | 0.00 | 0.00 | 1 | 1009.0 |
| 20260508100624 | 0 | 323 | 0.0 | 1.6 | 0.00 | 0.00 | 0.00 | 1 | 1009.0 |
| 20260508100546 | 0 | 323 | 0.0 | 1.6 | 0.00 | 0.00 | 0.00 | 1 | 1009.0 |
| 20260508100448 | 0 | 323 | 0.0 | 1.6 | 0.00 | 0.00 | 0.00 | 1 | 1009.0 |
| 20260508100331 | 0 | 330 | 0.0 | 1.6 | 0.00 | 0.00 | 0.00 | 1 | 1009.0 |
| 20260508100255 | 0 | 344 | 0.0 | 1.6 | 0.00 | 0.00 | 0.00 | 1 | 1009.0 |
| 20260508100209 | 0 | 331 | 0.0 | 1.6 | 0.00 | 0.00 | 0.00 | 1 | 1009.0 |
| 20260508100031 | 0 | 355 | 0.0 | 1.6 | 0.00 | 0.00 | 0.00 | 1 | 1009.0 |
| 20260508095944 | 0 | 5 | 0.0 | 1.6 | 0.00 | 0.00 | 0.00 | 1 | 1009.0 |
| 20260508095734 | 0 | 5 | 0.0 | 1.6 | 0.00 | 0.00 | 0.00 | 1 | 1009.0 |
| 20260508095649 | 0 | 5 | 0.0 | 1.6 | 0.00 | 0.00 | 0.00 | 1 | 1008.9 |
| 20260508095444 | 0 | 5 | 0.0 | 0.0 | 0.00 | 0.00 | 0.00 | 1 | 1008.9 |
| 20260508095317 | 0 | 5 | 0.0 | 0.0 | 0.00 | 0.00 | 0.00 | 1 | 1008.8 |
| 20260508095249 | 0 | 5 | 0.0 | 0.0 | 0.00 | 0.00 | 0.00 | 1 | 1008.8 |
| 20260508095153 | 0 | 5 | 0.0 | 0.0 | 0.00 | 0.00 | 0.00 | 1 | 1008.8 |
| 20260508095033 | 0 | 5 | 0.0 | 0.0 | 0.00 | 0.00 | 0.00 | 1 | 1008.8 |
| 20260508094938 | 0 | 5 | 0.0 | 0.0 | 0.00 | 0.00 | 0.00 | 1 | 1008.9 |
| 20260508094840 | 0 | 5 | 0.0 | 0.0 | 0.00 | 0.00 | 0.00 | 1 | 1008.9 |
| 20260508094710 | 0 | 5 | 0.0 | 0.0 | 0.00 | 0.00 | 0.00 | 1 | 1008.9 |
| 20260508094624 | 0 | 5 | 0.0 | 0.0 | 0.00 | 0.00 | 0.00 | 1 | 1008.8 |
| 20260508094436 | 0 | 5 | 0.0 | 0.0 | 0.00 | 0.00 | 0.00 | 1 | 1008.9 |
| 20260508094400 | 0 | 5 | 0.0 | 0.0 | 0.00 | 0.00 | 0.00 | 1 | 1008.9 |
| 20260508094314 | 0 | 5 | 0.0 | 0.0 | 0.00 | 0.00 | 0.00 | 1 | 1008.9 |
| 20260508094125 | 0 | 5 | 0.0 | 0.0 | 0.00 | 0.00 | 0.00 | 1 | 1008.8 |
| 20260508094040 | 0 | 5 | 0.0 | 0.0 | 0.00 | 0.00 | 0.00 | 1 | 1008.8 |
| 20260508093944 | 0 | 5 | 0.0 | 0.0 | 0.00 | 0.00 | 0.00 | 1 | 1008.8 |
| 20260508093857 | 0 | 5 | 0.0 | 0.0 | 0.00 | 0.00 | 0.00 | 1 | 1008.7 |
| 20260508093800 | 0 | 5 | 0.0 | 0.0 | 0.00 | 0.00 | 0.00 | 1 | 1008.7 |
| 20260508093721 | 0 | 5 | 0.0 | 0.0 | 0.00 | 0.00 | 0.00 | 1 | 1008.7 |
| 20260508093604 | 0 | 5 | 0.0 | 0.0 | 0.00 | 0.00 | 0.00 | 1 | 1008.7 |
| 20260508093525 | 0 | 5 | 0.0 | 0.0 | 0.00 | 0.00 | 0.00 | 1 | 1008.7 |
| 20260508093340 | 0 | 5 | 0.0 | 0.0 | 0.00 | 0.00 | 0.00 | 1 | 1008.7 |
| 20260508093233 | 0 | 5 | 0.0 | 0.0 | 0.00 | 0.00 | 0.00 | 1 | 1008.7 |
| 20260508093157 | 0 | 5 | 0.0 | 0.0 | 0.00 | 0.00 | 0.00 | 1 | 1008.7 |
| 20260508093040 | 0 | 5 | 0.0 | 0.0 | 0.00 | 0.00 | 0.00 | 1 | 1008.7 |
| 20260508093004 | 0 | 5 | 0.0 | 0.0 | 0.00 | 0.00 | 0.00 | 1 | 1008.7 |
| 20260508092917 | 0 | 5 | 0.0 | 0.0 | 0.00 | 0.00 | 0.00 | 1 | 1008.7 |
| 20260508092747 | 0 | 5 | 0.0 | 0.0 | 0.00 | 0.00 | 0.00 | 1 | 1008.8 |
| 20260508092648 | 0 | 5 | 0.0 | 0.0 | 0.00 | 0.00 | 0.00 | 1 | 1008.8 |
| 20260508092528 | 0 | 5 | 0.0 | 0.0 | 0.00 | 0.00 | 0.00 | 1 | 1008.8 |
| 20260508092432 | 0 | 5 | 0.0 | 0.0 | 0.00 | 0.00 | 0.00 | 1 | 1008.8 |
| 20260508092353 | 0 | 5 | 0.0 | 0.0 | 0.00 | 0.00 | 0.00 | 1 | 1008.7 |
| 20260508092254 | 0 | 5 | 0.0 | 0.0 | 0.00 | 0.00 | 0.00 | 1 | 1008.7 |
| 20260508092138 | 0 | 5 | 0.0 | 0.0 | 0.00 | 0.00 | 0.00 | 1 | 1008.6 |
| 20260508092100 | 0 | 5 | 0.0 | 0.0 | 0.00 | 0.00 | 0.00 | 1 | 1008.7 |
| 20260508091923 | 0 | 5 | 0.0 | 0.0 | 0.00 | 0.00 | 0.00 | 1 | 1008.7 |
| 20260508091845 | 0 | 5 | 0.0 | 0.0 | 0.00 | 0.00 | 0.00 | 1 | 1008.7 |
| 20260508091630 | 0 | 5 | 0.0 | 0.0 | 0.00 | 0.00 | 0.00 | 1 | 1008.7 |
| 20260508091535 | 0 | 5 | 0.0 | 0.0 | 0.00 | 0.00 | 0.00 | 1 | 1008.7 |
| 20260508091437 | 0 | 5 | 0.0 | 0.0 | 0.00 | 0.00 | 0.00 | 1 | 1008.6 |
| 20260508091341 | 0 | 5 | 0.0 | 0.0 | 0.00 | 0.00 | 0.00 | 1 | 1008.6 |
| 20260508091234 | 0 | 5 | 0.0 | 0.0 | 0.00 | 0.00 | 0.00 | 1 | 1008.5 |
| 20260508091158 | 0 | 5 | 0.0 | 0.0 | 0.00 | 0.00 | 0.00 | 1 | 1008.5 |
| 20260508091024 | 0 | 5 | 0.0 | 0.0 | 0.00 | 0.00 | 0.00 | 1 | 1008.6 |
| 20260508090940 | 0 | 5 | 0.0 | 0.0 | 0.00 | 0.00 | 0.00 | 1 | 1008.6 |
| 20260508090839 | 0 | 5 | 0.0 | 0.0 | 0.00 | 0.00 | 0.00 | 1 | 1008.6 |
| 20260508090747 | 0 | 5 | 0.0 | 0.0 | 0.00 | 0.00 | 0.00 | 1 | 1008.6 |
| 20260508090709 | 0 | 5 | 0.0 | 0.0 | 0.00 | 0.00 | 0.00 | 1 | 1008.6 |
| 20260508090541 | 0 | 5 | 0.0 | 1.6 | 0.00 | 0.00 | 0.00 | 1 | 1008.6 |
| 20260508090433 | 0 | 5 | 0.0 | 1.6 | 0.00 | 0.00 | 0.00 | 1 | 1008.6 |
| 20260508090231 | 0 | 5 | 0.0 | 1.6 | 0.00 | 0.00 | 0.00 | 1 | 1008.6 |
| 20260508090133 | 0 | 5 | 0.0 | 1.6 | 0.00 | 0.00 | 0.00 | 1 | 1008.5 |
| 20260508085935 | 0 | 5 | 0.0 | 3.2 | 0.00 | 0.00 | 0.00 | 1 | 1008.6 |
| 20260508085859 | 0 | 5 | 0.0 | 3.2 | 0.00 | 0.00 | 0.00 | 1 | 1008.6 |
| 20260508085724 | 0 | 5 | 1.6 | 3.2 | 0.00 | 0.00 | 0.00 | 1 | 1008.5 |
| 20260508085637 | 0 | 5 | 1.6 | 3.2 | 0.00 | 0.00 | 0.00 | 1 | 1008.6 |
| 20260508085513 | 0 | 5 | 0.0 | 3.2 | 0.00 | 0.00 | 0.00 | 1 | 1008.6 |
| 20260508085435 | 0 | 5 | 0.0 | 3.2 | 0.00 | 0.00 | 0.00 | 1 | 1008.6 |
| 20260508085307 | 0 | 5 | 1.6 | 3.2 | 0.00 | 0.00 | 0.00 | 1 | 1008.6 |
| 20260508085219 | 0 | 5 | 1.6 | 3.2 | 0.00 | 0.00 | 0.00 | 1 | 1008.6 |
| 20260508085028 | 0 | 5 | 0.0 | 1.6 | 0.00 | 0.00 | 0.00 | 1 | 1008.6 |
| 20260508084943 | 0 | 5 | 0.0 | 1.6 | 0.00 | 0.00 | 0.00 | 1 | 1008.6 |
| 20260508084814 | 0 | 5 | 0.0 | 1.6 | 0.00 | 0.00 | 0.00 | 1 | 1008.5 |
| 20260508084737 | 0 | 5 | 0.0 | 1.6 | 0.00 | 0.00 | 0.00 | 1 | 1008.6 |
| 20260508084536 | 0 | 5 | 0.0 | 1.6 | 0.00 | 0.00 | 0.00 | 1 | 1008.6 |
| 20260508084500 | 0 | 5 | 0.0 | 1.6 | 0.00 | 0.00 | 0.00 | 1 | 1008.6 |
| 20260508084327 | 0 | 5 | 0.0 | 0.0 | 0.00 | 0.00 | 0.00 | 1 | 1008.5 |
| 20260508084242 | 0 | 5 | 0.0 | 0.0 | 0.00 | 0.00 | 0.00 | 1 | 1008.5 |
| 20260508084144 | 0 | 5 | 0.0 | 0.0 | 0.00 | 0.00 | 0.00 | 1 | 1008.6 |
| 20260508084048 | 0 | 5 | 0.0 | 0.0 | 0.00 | 0.00 | 0.00 | 1 | 1008.6 |
| 20260508084009 | 0 | 5 | 0.0 | 0.0 | 0.00 | 0.00 | 0.00 | 1 | 1008.5 |
| 20260508083839 | 0 | 5 | 0.0 | 0.0 | 0.00 | 0.00 | 0.00 | 1 | 1008.5 |
| 20260508083734 | 0 | 5 | 0.0 | 0.0 | 0.00 | 0.00 | 0.00 | 1 | 1008.5 |
| 20260508083604 | 0 | 5 | 0.0 | 0.0 | 0.00 | 0.00 | 0.00 | 1 | 1008.5 |
| 20260508083525 | 0 | 5 | 0.0 | 0.0 | 0.00 | 0.00 | 0.00 | 1 | 1008.5 |
| 20260508083330 | 0 | 5 | 0.0 | 0.0 | 0.00 | 0.00 | 0.00 | 1 | 1008.5 |
| 20260508083237 | 0 | 5 | 0.0 | 0.0 | 0.00 | 0.00 | 0.00 | 1 | 1008.5 |
| 20260508083139 | 0 | 5 | 0.0 | 0.0 | 0.00 | 0.00 | 0.00 | 1 | 1008.5 |
| 20260508083101 | 0 | 5 | 0.0 | 0.0 | 0.00 | 0.00 | 0.00 | 1 | 1008.5 |
| 20260508083024 | 0 | 5 | 0.0 | 0.0 | 0.00 | 0.00 | 0.00 | 1 | 1008.5 |
| 20260508082827 | 0 | 5 | 0.0 | 0.0 | 0.00 | 0.00 | 0.00 | 1 | 1008.5 |
| 20260508082750 | 0 | 5 | 0.0 | 0.0 | 0.00 | 0.00 | 0.00 | 1 | 1008.5 |
| 20260508082615 | 0 | 5 | 0.0 | 0.0 | 0.00 | 0.00 | 0.00 | 1 | 1008.4 |
| 20260508082539 | 0 | 5 | 0.0 | 0.0 | 0.00 | 0.00 | 0.00 | 1 | 1008.5 |
| 20260508082410 | 0 | 5 | 0.0 | 0.0 | 0.00 | 0.00 | 0.00 | 1 | 1008.5 |
| 20260508082336 | 0 | 5 | 0.0 | 0.0 | 0.00 | 0.00 | 0.00 | 1 | 1008.4 |
| 20260508082206 | 0 | 5 | 0.0 | 0.0 | 0.00 | 0.00 | 0.00 | 1 | 1008.4 |
| 20260508082121 | 0 | 5 | 0.0 | 0.0 | 0.00 | 0.00 | 0.00 | 1 | 1008.5 |
| 20260508081952 | 0 | 5 | 0.0 | 0.0 | 0.00 | 0.00 | 0.00 | 1 | 1008.5 |
| 20260508081826 | 0 | 5 | 0.0 | 0.0 | 0.00 | 0.00 | 0.00 | 1 | 1008.5 |
| 20260508081748 | 0 | 5 | 0.0 | 0.0 | 0.00 | 0.00 | 0.00 | 1 | 1008.5 |
| 20260508081709 | 0 | 5 | 0.0 | 0.0 | 0.00 | 0.00 | 0.00 | 1 | 1008.5 |
| 20260508081623 | 0 | 5 | 0.0 | 0.0 | 0.00 | 0.00 | 0.00 | 1 | 1008.4 |
| 20260508081504 | 0 | 5 | 0.0 | 0.0 | 0.00 | 0.00 | 0.00 | 1 | 1008.5 |
| 20260508081426 | 0 | 5 | 0.0 | 0.0 | 0.00 | 0.00 | 0.00 | 1 | 1008.4 |
| 20260508081229 | 0 | 5 | 0.0 | 3.2 | 0.00 | 0.00 | 0.00 | 1 | 1008.4 |
| 20260508081157 | 0 | 5 | 0.0 | 3.2 | 0.00 | 0.00 | 0.00 | 1 | 1008.4 |
| 20260508081040 | 0 | 5 | 0.0 | 3.2 | 0.00 | 0.00 | 0.00 | 1 | 1008.4 |
| 20260508081004 | 0 | 5 | 0.0 | 3.2 | 0.00 | 0.00 | 0.00 | 1 | 1008.4 |
| 20260508080825 | 0 | 5 | 0.0 | 3.2 | 0.00 | 0.00 | 0.00 | 1 | 1008.4 |
| 20260508080749 | 0 | 5 | 0.0 | 3.2 | 0.00 | 0.00 | 0.00 | 1 | 1008.4 |
| 20260508080711 | 0 | 5 | 0.0 | 3.2 | 0.00 | 0.00 | 0.00 | 1 | 1008.4 |
| 20260508080616 | 0 | 5 | 0.0 | 3.2 | 0.00 | 0.00 | 0.00 | 1 | 1008.4 |
| 20260508080537 | 0 | 5 | 0.0 | 3.2 | 0.00 | 0.00 | 0.00 | 1 | 1008.4 |
| 20260508080408 | 0 | 5 | 1.6 | 3.2 | 0.00 | 0.00 | 0.00 | 1 | 1008.4 |
| 20260508080226 | 0 | 360 | 0.0 | 3.2 | 0.00 | 0.00 | 0.00 | 1 | 1008.5 |
| 20260508080130 | 0 | 360 | 0.0 | 3.2 | 0.00 | 0.00 | 0.00 | 1 | 1008.4 |
| 20260508080018 | 0 | 360 | 0.0 | 3.2 | 0.00 | 0.00 | 0.00 | 1 | 1008.4 |
| 20260508075850 | 0 | 360 | 0.0 | 1.6 | 0.00 | 0.00 | 0.00 | 1 | 1008.5 |
| 20260508075742 | 0 | 360 | 0.0 | 1.6 | 0.00 | 0.00 | 0.00 | 1 | 1008.5 |
| 20260508075602 | 0 | 360 | 0.0 | 0.0 | 0.00 | 0.00 | 0.00 | 1 | 1008.4 |
| 20260508075523 | 0 | 360 | 0.0 | 0.0 | 0.00 | 0.00 | 0.00 | 1 | 1008.4 |
| 20260508075354 | 0 | 360 | 0.0 | 0.0 | 0.00 | 0.00 | 0.00 | 1 | 1008.4 |
| 20260508075230 | 0 | 360 | 0.0 | 0.0 | 0.00 | 0.00 | 0.00 | 1 | 1008.4 |
| 20260508075123 | 0 | 360 | 0.0 | 0.0 | 0.00 | 0.00 | 0.00 | 1 | 1008.4 |
| 20260508075045 | 0 | 360 | 0.0 | 0.0 | 0.00 | 0.00 | 0.00 | 1 | 1008.5 |
| 20260508074833 | 0 | 360 | 0.0 | 0.0 | 0.00 | 0.00 | 0.00 | 1 | 1008.4 |
| 20260508074735 | 0 | 360 | 0.0 | 0.0 | 0.00 | 0.00 | 0.00 | 1 | 1008.4 |
| 20260508074638 | 0 | 360 | 0.0 | 0.0 | 0.00 | 0.00 | 0.00 | 1 | 1008.4 |
| 20260508074558 | 0 | 360 | 0.0 | 0.0 | 0.00 | 0.00 | 0.00 | 1 | 1008.4 |
| 20260508074408 | 0 | 360 | 0.0 | 0.0 | 0.00 | 0.00 | 0.00 | 1 | 1008.3 |
| 20260508074222 | 0 | 360 | 0.0 | 0.0 | 0.00 | 0.00 | 0.00 | 1 | 1008.3 |
| 20260508074126 | 0 | 360 | 0.0 | 0.0 | 0.00 | 0.00 | 0.00 | 1 | 1008.3 |
| 20260508074047 | 0 | 360 | 0.0 | 0.0 | 0.00 | 0.00 | 0.00 | 1 | 1008.3 |
| 20260508073833 | 0 | 360 | 0.0 | 0.0 | 0.00 | 0.00 | 0.00 | 1 | 1008.2 |
| 20260508073756 | 0 | 360 | 0.0 | 0.0 | 0.00 | 0.00 | 0.00 | 1 | 1008.2 |
| 20260508073639 | 0 | 360 | 0.0 | 0.0 | 0.00 | 0.00 | 0.00 | 1 | 1008.3 |
| 20260508073543 | 0 | 360 | 0.0 | 0.0 | 0.00 | 0.00 | 0.00 | 1 | 1008.3 |
| 20260508073436 | 0 | 360 | 0.0 | 0.0 | 0.00 | 0.00 | 0.00 | 1 | 1008.2 |
| 20260508073339 | 0 | 360 | 0.0 | 0.0 | 0.00 | 0.00 | 0.00 | 1 | 1008.2 |
| 20260508073301 | 0 | 360 | 0.0 | 0.0 | 0.00 | 0.00 | 0.00 | 1 | 1008.2 |
| 20260508073222 | 0 | 360 | 0.0 | 0.0 | 0.00 | 0.00 | 0.00 | 1 | 1008.2 |
| 20260508073030 | 0 | 360 | 0.0 | 0.0 | 0.00 | 0.00 | 0.00 | 1 | 1008.3 |
| 20260508072930 | 0 | 360 | 0.0 | 0.0 | 0.00 | 0.00 | 0.00 | 1 | 1008.3 |
| 20260508072834 | 0 | 360 | 0.0 | 0.0 | 0.00 | 0.00 | 0.00 | 1 | 1008.3 |
| 20260508072756 | 0 | 360 | 0.0 | 0.0 | 0.00 | 0.00 | 0.00 | 1 | 1008.3 |
| 20260508072717 | 0 | 360 | 0.0 | 0.0 | 0.00 | 0.00 | 0.00 | 1 | 1008.3 |
| 20260508072540 | 0 | 360 | 0.0 | 0.0 | 0.00 | 0.00 | 0.00 | 1 | 1008.3 |
| 20260508072441 | 0 | 360 | 0.0 | 0.0 | 0.00 | 0.00 | 0.00 | 1 | 1008.3 |
| 20260508072344 | 0 | 360 | 0.0 | 0.0 | 0.00 | 0.00 | 0.00 | 1 | 1008.3 |
| 20260508072222 | 0 | 360 | 0.0 | 0.0 | 0.00 | 0.00 | 0.00 | 1 | 1008.2 |
| 20260508072125 | 0 | 360 | 0.0 | 0.0 | 0.00 | 0.00 | 0.00 | 1 | 1008.2 |
| 20260508072051 | 0 | 360 | 0.0 | 0.0 | 0.00 | 0.00 | 0.00 | 1 | 1008.2 |
| 20260508071834 | 0 | 360 | 0.0 | 0.0 | 0.00 | 0.00 | 0.00 | 1 | 1008.2 |
| 20260508071735 | 0 | 360 | 0.0 | 0.0 | 0.00 | 0.00 | 0.00 | 1 | 1008.2 |
| 20260508071638 | 0 | 360 | 0.0 | 0.0 | 0.00 | 0.00 | 0.00 | 1 | 1008.2 |
| 20260508071558 | 0 | 360 | 0.0 | 0.0 | 0.00 | 0.00 | 0.00 | 1 | 1008.2 |
| 20260508071430 | 0 | 360 | 0.0 | 0.0 | 0.00 | 0.00 | 0.00 | 1 | 1008.2 |
| 20260508071323 | 0 | 360 | 0.0 | 0.0 | 0.00 | 0.00 | 0.00 | 1 | 1008.2 |
| 20260508071132 | 0 | 360 | 0.0 | 0.0 | 0.00 | 0.00 | 0.00 | 1 | 1008.2 |
| 20260508071034 | 0 | 360 | 0.0 | 0.0 | 0.00 | 0.00 | 0.00 | 1 | 1008.2 |
| 20260508070837 | 0 | 360 | 0.0 | 0.0 | 0.00 | 0.00 | 0.00 | 1 | 1008.3 |
| 20260508070743 | 0 | 360 | 0.0 | 0.0 | 0.00 | 0.00 | 0.00 | 1 | 1008.3 |
| 20260508070627 | 0 | 360 | 0.0 | 0.0 | 0.00 | 0.00 | 0.00 | 1 | 1008.3 |
| 20260508070549 | 0 | 360 | 0.0 | 0.0 | 0.00 | 0.00 | 0.00 | 1 | 1008.3 |
| 20260508070431 | 0 | 360 | 0.0 | 0.0 | 0.00 | 0.00 | 0.00 | 1 | 1008.3 |
| 20260508070354 | 0 | 360 | 0.0 | 0.0 | 0.00 | 0.00 | 0.00 | 1 | 1008.3 |
| 20260508070316 | 0 | 360 | 0.0 | 0.0 | 0.00 | 0.00 | 0.00 | 1 | 1008.3 |
| 20260508070139 | 0 | 360 | 0.0 | 0.0 | 0.00 | 0.00 | 0.00 | 1 | 1008.3 |
| 20260508070040 | 0 | 360 | 0.0 | 0.0 | 0.00 | 0.00 | 0.00 | 1 | 1008.3 |
| 20260508065944 | 0 | 360 | 0.0 | 0.0 | 0.00 | 0.00 | 0.00 | 1 | 1008.3 |
| 20260508065844 | 0 | 360 | 0.0 | 0.0 | 0.00 | 0.00 | 0.00 | 1 | 1008.3 |
| 20260508065629 | 0 | 360 | 0.0 | 0.0 | 0.00 | 0.00 | 0.00 | 1 | 1008.2 |
| 20260508065534 | 0 | 360 | 0.0 | 0.0 | 0.00 | 0.00 | 0.00 | 1 | 1008.2 |
| 20260508065446 | 0 | 360 | 0.0 | 0.0 | 0.00 | 0.00 | 0.00 | 1 | 1008.3 |
| 20260508065335 | 0 | 360 | 0.0 | 0.0 | 0.00 | 0.00 | 0.00 | 1 | 1008.2 |
| 20260508065241 | 0 | 360 | 0.0 | 0.0 | 0.00 | 0.00 | 0.00 | 1 | 1008.2 |
| 20260508065202 | 0 | 360 | 0.0 | 0.0 | 0.00 | 0.00 | 0.00 | 1 | 1008.3 |
| 20260508065033 | 0 | 360 | 0.0 | 0.0 | 0.00 | 0.00 | 0.00 | 1 | 1008.2 |
| 20260508064925 | 0 | 360 | 0.0 | 0.0 | 0.00 | 0.00 | 0.00 | 1 | 1008.3 |
| 20260508064744 | 0 | 360 | 0.0 | 1.6 | 0.00 | 0.00 | 0.00 | 1 | 1008.3 |
| 20260508064645 | 0 | 360 | 0.0 | 1.6 | 0.00 | 0.00 | 0.00 | 1 | 1008.3 |
| 20260508064533 | 0 | 360 | 0.0 | 1.6 | 0.00 | 0.00 | 0.00 | 1 | 1008.3 |
| 20260508064444 | 0 | 360 | 0.0 | 1.6 | 0.00 | 0.00 | 0.00 | 1 | 1008.3 |
| 20260508064346 | 0 | 360 | 0.0 | 1.6 | 0.00 | 0.00 | 0.00 | 1 | 1008.3 |
| 20260508064251 | 0 | 360 | 0.0 | 1.6 | 0.00 | 0.00 | 0.00 | 1 | 1008.3 |
| 20260508064212 | 0 | 360 | 0.0 | 1.6 | 0.00 | 0.00 | 0.00 | 1 | 1008.3 |
| 20260508063951 | 0 | 360 | 0.0 | 1.6 | 0.00 | 0.00 | 0.00 | 1 | 1008.4 |
| 20260508063844 | 0 | 360 | 0.0 | 1.6 | 0.00 | 0.00 | 0.00 | 1 | 1008.4 |
| 20260508063715 | 0 | 360 | 0.0 | 1.6 | 0.00 | 0.00 | 0.00 | 1 | 1008.4 |
| 20260508063624 | 0 | 360 | 0.0 | 1.6 | 0.00 | 0.00 | 0.00 | 1 | 1008.4 |
| 20260508063427 | 0 | 360 | 0.0 | 1.6 | 0.00 | 0.00 | 0.00 | 1 | 1008.3 |
| 20260508063351 | 0 | 360 | 0.0 | 1.6 | 0.00 | 0.00 | 0.00 | 1 | 1008.3 |
| 20260508063237 | 0 | 360 | 0.0 | 1.6 | 0.00 | 0.00 | 0.00 | 1 | 1008.3 |
| 20260508063137 | 0 | 360 | 0.0 | 1.6 | 0.00 | 0.00 | 0.00 | 1 | 1008.3 |
| 20260508063102 | 0 | 360 | 0.0 | 0.0 | 0.00 | 0.00 | 0.00 | 1 | 1008.3 |
| 20260508063006 | 0 | 360 | 0.0 | 0.0 | 0.00 | 0.00 | 0.00 | 1 | 1008.3 |
| 20260508062927 | 0 | 360 | 0.0 | 0.0 | 0.00 | 0.00 | 0.00 | 1 | 1008.3 |
| 20260508062730 | 0 | 360 | 0.0 | 0.0 | 0.00 | 0.00 | 0.00 | 1 | 1008.3 |
| 20260508062633 | 0 | 360 | 0.0 | 0.0 | 0.00 | 0.00 | 0.00 | 1 | 1008.4 |
| 20260508062536 | 0 | 360 | 0.0 | 0.0 | 0.00 | 0.00 | 0.00 | 1 | 1008.3 |
| 20260508062459 | 0 | 360 | 0.0 | 0.0 | 0.00 | 0.00 | 0.00 | 1 | 1008.3 |
| 20260508062433 | 0 | 360 | 0.0 | 0.0 | 0.00 | 0.00 | 0.00 | 1 | 1008.4 |
| 20260508062242 | 0 | 360 | 0.0 | 0.0 | 0.00 | 0.00 | 0.00 | 1 | 1008.3 |
| 20260508062202 | 0 | 360 | 0.0 | 0.0 | 0.00 | 0.00 | 0.00 | 1 | 1008.3 |
| 20260508062107 | 0 | 360 | 0.0 | 0.0 | 0.00 | 0.00 | 0.00 | 1 | 1008.3 |
| 20260508062028 | 0 | 360 | 0.0 | 0.0 | 0.00 | 0.00 | 0.00 | 1 | 1008.4 |
| 20260508061837 | 0 | 360 | 0.0 | 0.0 | 0.00 | 0.00 | 0.00 | 1 | 1008.4 |
| 20260508061729 | 0 | 360 | 0.0 | 0.0 | 0.00 | 0.00 | 0.00 | 1 | 1008.3 |
| 20260508061539 | 0 | 360 | 0.0 | 0.0 | 0.00 | 0.00 | 0.00 | 1 | 1008.3 |
| 20260508061442 | 0 | 360 | 0.0 | 0.0 | 0.00 | 0.00 | 0.00 | 1 | 1008.3 |
| 20260508061336 | 0 | 360 | 0.0 | 0.0 | 0.00 | 0.00 | 0.00 | 1 | 1008.5 |
| 20260508061223 | 0 | 360 | 0.0 | 0.0 | 0.00 | 0.00 | 0.00 | 1 | 1008.4 |
| 20260508061144 | 0 | 360 | 0.0 | 0.0 | 0.00 | 0.00 | 0.00 | 1 | 1008.4 |
| 20260508061016 | 0 | 360 | 0.0 | 0.0 | 0.00 | 0.00 | 0.00 | 1 | 1008.4 |
| 20260508060907 | 0 | 360 | 0.0 | 0.0 | 0.00 | 0.00 | 0.00 | 1 | 1008.4 |
| 20260508060728 | 0 | 360 | 0.0 | 0.0 | 0.00 | 0.00 | 0.00 | 1 | 1008.5 |
| 20260508060641 | 0 | 360 | 0.0 | 0.0 | 0.00 | 0.00 | 0.00 | 1 | 1008.5 |
| 20260508060511 | 0 | 360 | 0.0 | 0.0 | 0.00 | 0.00 | 0.00 | 1 | 1008.4 |
| 20260508060433 | 0 | 360 | 0.0 | 0.0 | 0.00 | 0.00 | 0.00 | 1 | 1008.4 |
| 20260508060235 | 0 | 360 | 0.0 | 1.6 | 0.00 | 0.00 | 0.00 | 1 | 1008.5 |
| 20260508060157 | 0 | 360 | 0.0 | 1.6 | 0.00 | 0.00 | 0.00 | 1 | 1008.5 |
| 20260508060100 | 0 | 360 | 0.0 | 1.6 | 0.00 | 0.00 | 0.00 | 1 | 1008.5 |
| 20260508060006 | 0 | 360 | 0.0 | 1.6 | 0.00 | 0.00 | 0.00 | 1 | 1008.5 |
| 20260508055908 | 0 | 360 | 0.0 | 1.6 | 0.00 | 0.00 | 0.00 | 1 | 1008.5 |
| 20260508055731 | 0 | 360 | 0.0 | 1.6 | 0.00 | 0.00 | 0.00 | 1 | 1008.5 |
| 20260508055651 | 0 | 360 | 0.0 | 1.6 | 0.00 | 0.00 | 0.00 | 1 | 1008.5 |
| 20260508055554 | 0 | 360 | 0.0 | 1.6 | 0.00 | 0.00 | 0.00 | 1 | 1008.5 |
| 20260508055458 | 0 | 360 | 0.0 | 1.6 | 0.00 | 0.00 | 0.00 | 1 | 1008.5 |
| 20260508055420 | 1 | 360 | 1.6 | 1.6 | 0.00 | 0.00 | 0.00 | 1 | 1008.5 |
| 20260508055222 | 1 | 360 | 0.0 | 1.6 | 0.00 | 0.00 | 0.00 | 1 | 1008.5 |
| 20260508055123 | 1 | 360 | 0.0 | 1.6 | 0.00 | 0.00 | 0.00 | 1 | 1008.5 |
| 20260508055026 | 1 | 360 | 0.0 | 1.6 | 0.00 | 0.00 | 0.00 | 1 | 1008.5 |
| 20260508054954 | 1 | 360 | 0.0 | 0.0 | 0.00 | 0.00 | 0.00 | 1 | 1008.5 |
| 20260508054915 | 1 | 360 | 0.0 | 0.0 | 0.00 | 0.00 | 0.00 | 1 | 1008.5 |
| 20260508054739 | 1 | 360 | 0.0 | 0.0 | 0.00 | 0.00 | 0.00 | 1 | 1008.4 |
| 20260508054700 | 1 | 360 | 0.0 | 0.0 | 0.00 | 0.00 | 0.00 | 1 | 1008.4 |
| 20260508054423 | 1 | 360 | 0.0 | 0.0 | 0.00 | 0.00 | 0.00 | 1 | 1008.4 |
| 20260508054336 | 1 | 360 | 0.0 | 0.0 | 0.00 | 0.00 | 0.00 | 1 | 1008.4 |
| 20260508054247 | 1 | 360 | 0.0 | 0.0 | 0.00 | 0.00 | 0.00 | 1 | 1008.4 |
| 20260508054006 | 1 | 360 | 0.0 | 0.0 | 0.00 | 0.00 | 0.00 | 1 | 1008.5 |
| 20260508053921 | 1 | 360 | 0.0 | 0.0 | 0.00 | 0.00 | 0.00 | 1 | 1008.5 |
| 20260508053736 | 1 | 360 | 0.0 | 0.0 | 0.00 | 0.00 | 0.00 | 1 | 1008.5 |
| 20260508053659 | 1 | 360 | 0.0 | 0.0 | 0.00 | 0.00 | 0.00 | 1 | 1008.5 |
| 20260508053541 | 1 | 360 | 0.0 | 0.0 | 0.00 | 0.00 | 0.00 | 1 | 1008.6 |
| 20260508053441 | 1 | 360 | 0.0 | 0.0 | 0.00 | 0.00 | 0.00 | 1 | 1008.6 |
| 20260508053311 | 1 | 360 | 0.0 | 0.0 | 0.00 | 0.00 | 0.00 | 1 | 1008.5 |
| 20260508053225 | 1 | 360 | 0.0 | 0.0 | 0.00 | 0.00 | 0.00 | 1 | 1008.5 |
| 20260508053035 | 1 | 360 | 0.0 | 0.0 | 0.00 | 0.00 | 0.00 | 1 | 1008.5 |
| 20260508052952 | 1 | 360 | 0.0 | 0.0 | 0.00 | 0.00 | 0.00 | 1 | 1008.5 |
| 20260508052913 | 1 | 360 | 0.0 | 0.0 | 0.00 | 0.00 | 0.00 | 1 | 1008.5 |
| 20260508052726 | 1 | 360 | 0.0 | 0.0 | 0.00 | 0.00 | 0.00 | 1 | 1008.6 |
| 20260508052631 | 1 | 360 | 0.0 | 0.0 | 0.00 | 0.00 | 0.00 | 1 | 1008.6 |
| 20260508052533 | 1 | 360 | 0.0 | 0.0 | 0.00 | 0.00 | 0.00 | 1 | 1008.6 |
| 20260508052457 | 1 | 360 | 0.0 | 0.0 | 0.00 | 0.00 | 0.00 | 1 | 1008.6 |
| 20260508052418 | 1 | 360 | 0.0 | 0.0 | 0.00 | 0.00 | 0.00 | 1 | 1008.6 |
| 20260508052322 | 1 | 360 | 0.0 | 0.0 | 0.00 | 0.00 | 0.00 | 1 | 1008.6 |
| 20260508052244 | 1 | 360 | 0.0 | 0.0 | 0.00 | 0.00 | 0.00 | 1 | 1008.6 |
| 20260508052113 | 1 | 360 | 0.0 | 0.0 | 0.00 | 0.00 | 0.00 | 1 | 1008.6 |
| 20260508052027 | 1 | 360 | 0.0 | 0.0 | 0.00 | 0.00 | 0.00 | 1 | 1008.6 |
| 20260508051835 | 1 | 360 | 0.0 | 0.0 | 0.00 | 0.00 | 0.00 | 1 | 1008.6 |
| 20260508051735 | 1 | 360 | 0.0 | 0.0 | 0.00 | 0.00 | 0.00 | 1 | 1008.6 |
| 20260508051538 | 1 | 360 | 0.0 | 0.0 | 0.00 | 0.00 | 0.00 | 1 | 1008.6 |
| 20260508051446 | 1 | 360 | 0.0 | 0.0 | 0.00 | 0.00 | 0.00 | 1 | 1008.6 |
| 20260508051350 | 1 | 360 | 0.0 | 0.0 | 0.00 | 0.00 | 0.00 | 1 | 1008.7 |
| 20260508051231 | 1 | 360 | 0.0 | 0.0 | 0.00 | 0.00 | 0.00 | 1 | 1008.7 |
| 20260508051134 | 1 | 360 | 0.0 | 0.0 | 0.00 | 0.00 | 0.00 | 1 | 1008.7 |
| 20260508051057 | 1 | 360 | 0.0 | 0.0 | 0.00 | 0.00 | 0.00 | 1 | 1008.7 |
| 20260508050915 | 1 | 360 | 0.0 | 0.0 | 0.00 | 0.00 | 0.00 | 1 | 1008.7 |
| 20260508050831 | 1 | 360 | 0.0 | 0.0 | 0.00 | 0.00 | 0.00 | 1 | 1008.8 |
| 20260508050640 | 1 | 360 | 0.0 | 0.0 | 0.00 | 0.00 | 0.00 | 1 | 1008.8 |
| 20260508050537 | 1 | 360 | 0.0 | 0.0 | 0.00 | 0.00 | 0.00 | 1 | 1008.8 |
| 20260508050424 | 1 | 360 | 0.0 | 0.0 | 0.00 | 0.00 | 0.00 | 1 | 1008.8 |
| 20260508050345 | 1 | 360 | 0.0 | 0.0 | 0.00 | 0.00 | 0.00 | 1 | 1008.8 |
| 20260508050306 | 1 | 360 | 0.0 | 0.0 | 0.00 | 0.00 | 0.00 | 1 | 1008.8 |
| 20260508050138 | 1 | 360 | 0.0 | 0.0 | 0.00 | 0.00 | 0.00 | 1 | 1008.8 |
| 20260508050031 | 1 | 360 | 0.0 | 0.0 | 0.00 | 0.00 | 0.00 | 1 | 1008.8 |
| 20260508045840 | 1 | 360 | 0.0 | 0.0 | 0.00 | 0.00 | 0.00 | 1 | 1008.8 |
| 20260508045733 | 1 | 360 | 0.0 | 0.0 | 0.00 | 0.00 | 0.00 | 1 | 1008.9 |
| 20260508045656 | 1 | 360 | 0.0 | 0.0 | 0.00 | 0.00 | 0.00 | 1 | 1008.9 |
| 20260508045602 | 1 | 360 | 0.0 | 0.0 | 0.00 | 0.00 | 0.00 | 1 | 1008.8 |
| 20260508045523 | 1 | 360 | 0.0 | 0.0 | 0.00 | 0.00 | 0.00 | 1 | 1008.8 |
| 20260508045331 | 1 | 360 | 0.0 | 0.0 | 0.00 | 0.00 | 0.00 | 1 | 1008.8 |
| 20260508045232 | 1 | 360 | 0.0 | 0.0 | 0.00 | 0.00 | 0.00 | 1 | 1008.9 |
| 20260508045134 | 1 | 360 | 0.0 | 0.0 | 0.00 | 0.00 | 0.00 | 1 | 1008.9 |
| 20260508045056 | 1 | 360 | 0.0 | 0.0 | 0.00 | 0.00 | 0.00 | 1 | 1008.9 |
| 20260508045017 | 1 | 360 | 0.0 | 0.0 | 0.00 | 0.00 | 0.00 | 1 | 1008.8 |
| 20260508044920 | 1 | 360 | 0.0 | 0.0 | 0.00 | 0.00 | 0.00 | 1 | 1008.9 |
| 20260508044840 | 1 | 360 | 0.0 | 0.0 | 0.00 | 0.00 | 0.00 | 1 | 1008.9 |
| 20260508044710 | 1 | 360 | 0.0 | 0.0 | 0.00 | 0.00 | 0.00 | 1 | 1008.9 |
| 20260508044626 | 1 | 360 | 0.0 | 0.0 | 0.00 | 0.00 | 0.00 | 1 | 1008.9 |
| 20260508044456 | 1 | 360 | 0.0 | 0.0 | 0.00 | 0.00 | 0.00 | 1 | 1008.9 |
| 20260508044358 | 1 | 360 | 0.0 | 0.0 | 0.00 | 0.00 | 0.00 | 1 | 1008.9 |
| 20260508044311 | 1 | 360 | 0.0 | 0.0 | 0.00 | 0.00 | 0.00 | 1 | 1008.8 |
| 20260508044134 | 1 | 360 | 0.0 | 0.0 | 0.00 | 0.00 | 0.00 | 1 | 1008.9 |
| 20260508044034 | 1 | 360 | 0.0 | 0.0 | 0.00 | 0.00 | 0.00 | 1 | 1008.9 |
| 20260508043940 | 1 | 360 | 0.0 | 0.0 | 0.00 | 0.00 | 0.00 | 1 | 1008.9 |
| 20260508043840 | 1 | 360 | 0.0 | 0.0 | 0.00 | 0.00 | 0.00 | 1 | 1008.9 |
| 20260508043708 | 1 | 360 | 0.0 | 0.0 | 0.00 | 0.00 | 0.00 | 1 | 1008.9 |
| 20260508043624 | 1 | 360 | 0.0 | 0.0 | 0.00 | 0.00 | 0.00 | 1 | 1009.0 |
| 20260508043433 | 1 | 360 | 0.0 | 0.0 | 0.00 | 0.00 | 0.00 | 1 | 1009.0 |
| 20260508043327 | 1 | 360 | 0.0 | 0.0 | 0.00 | 0.00 | 0.00 | 1 | 1008.9 |
| 20260508043249 | 1 | 360 | 0.0 | 0.0 | 0.00 | 0.00 | 0.00 | 1 | 1008.9 |
| 20260508043126 | 1 | 360 | 0.0 | 0.0 | 0.00 | 0.00 | 0.00 | 1 | 1009.0 |
| 20260508043041 | 1 | 360 | 0.0 | 0.0 | 0.00 | 0.00 | 0.00 | 1 | 1009.0 |
| 20260508042911 | 1 | 360 | 0.0 | 0.0 | 0.00 | 0.00 | 0.00 | 1 | 1009.0 |
| 20260508042833 | 1 | 360 | 0.0 | 0.0 | 0.00 | 0.00 | 0.00 | 1 | 1009.0 |
| 20260508042635 | 1 | 360 | 0.0 | 0.0 | 0.00 | 0.00 | 0.00 | 1 | 1009.0 |
| 20260508042559 | 1 | 360 | 0.0 | 0.0 | 0.00 | 0.00 | 0.00 | 1 | 1009.0 |
| 20260508042424 | 1 | 360 | 0.0 | 1.6 | 0.00 | 0.00 | 0.00 | 1 | 1009.0 |
| 20260508042338 | 1 | 360 | 0.0 | 1.6 | 0.00 | 0.00 | 0.00 | 1 | 1009.0 |
| 20260508042245 | 1 | 360 | 0.0 | 1.6 | 0.00 | 0.00 | 0.00 | 1 | 1009.0 |
| 20260508042207 | 1 | 360 | 0.0 | 1.6 | 0.00 | 0.00 | 0.00 | 1 | 1009.0 |
| 20260508042122 | 1 | 360 | 0.0 | 1.6 | 0.00 | 0.00 | 0.00 | 1 | 1009.0 |
| 20260508041934 | 1 | 360 | 0.0 | 1.6 | 0.00 | 0.00 | 0.00 | 1 | 1009.0 |
| 20260508041827 | 1 | 360 | 0.0 | 1.6 | 0.00 | 0.00 | 0.00 | 1 | 1009.0 |
| 20260508041749 | 1 | 360 | 0.0 | 1.6 | 0.00 | 0.00 | 0.00 | 1 | 1009.0 |
| 20260508041654 | 1 | 360 | 0.0 | 1.6 | 0.00 | 0.00 | 0.00 | 1 | 1009.0 |
| 20260508041617 | 1 | 360 | 0.0 | 1.6 | 0.00 | 0.00 | 0.00 | 1 | 1009.0 |
| 20260508041446 | 1 | 360 | 0.0 | 1.6 | 0.00 | 0.00 | 0.00 | 1 | 1009.0 |
| 20260508041342 | 1 | 360 | 0.0 | 1.6 | 0.00 | 0.00 | 0.00 | 1 | 1009.0 |
| 20260508041304 | 1 | 360 | 0.0 | 1.6 | 0.00 | 0.00 | 0.00 | 1 | 1008.9 |
| 20260508041208 | 1 | 360 | 0.0 | 1.6 | 0.00 | 0.00 | 0.00 | 1 | 1009.0 |
| 20260508041123 | 1 | 360 | 0.0 | 1.6 | 0.00 | 0.00 | 0.00 | 1 | 1009.0 |
| 20260508040933 | 1 | 360 | 0.0 | 1.6 | 0.00 | 0.00 | 0.00 | 1 | 1009.0 |
| 20260508040849 | 1 | 360 | 0.0 | 1.6 | 0.00 | 0.00 | 0.00 | 1 | 1009.0 |
| 20260508040822 | 1 | 360 | 0.0 | 1.6 | 0.00 | 0.00 | 0.00 | 1 | 1008.9 |
| 20260508040634 | 1 | 360 | 0.0 | 1.6 | 0.00 | 0.00 | 0.00 | 1 | 1009.0 |
| 20260508040527 | 1 | 360 | 0.0 | 0.0 | 0.00 | 0.00 | 0.00 | 1 | 1008.9 |
| 20260508040452 | 1 | 360 | 0.0 | 0.0 | 0.00 | 0.00 | 0.00 | 1 | 1008.9 |
| 20260508040355 | 1 | 360 | 0.0 | 0.0 | 0.00 | 0.00 | 0.00 | 1 | 1009.0 |
| 20260508040242 | 1 | 360 | 0.0 | 0.0 | 0.00 | 0.00 | 0.00 | 1 | 1009.0 |
| 20260508040125 | 1 | 360 | 0.0 | 0.0 | 0.00 | 0.00 | 0.00 | 1 | 1009.0 |
| 20260508040049 | 1 | 360 | 0.0 | 0.0 | 0.00 | 0.00 | 0.00 | 1 | 1009.0 |
| 20260508035924 | 1 | 360 | 0.0 | 0.0 | 0.00 | 0.00 | 0.00 | 1 | 1008.9 |
| 20260508035830 | 1 | 360 | 0.0 | 0.0 | 0.00 | 0.00 | 0.00 | 1 | 1008.9 |
| 20260508035750 | 1 | 360 | 0.0 | 0.0 | 0.00 | 0.00 | 0.00 | 1 | 1008.9 |
| 20260508035622 | 1 | 360 | 0.0 | 0.0 | 0.00 | 0.00 | 0.00 | 1 | 1008.9 |
| 20260508035536 | 1 | 360 | 0.0 | 0.0 | 0.00 | 0.00 | 0.00 | 1 | 1008.9 |
| 20260508035326 | 1 | 360 | 0.0 | 0.0 | 0.00 | 0.00 | 0.00 | 1 | 1008.9 |
| 20260508035223 | 1 | 360 | 0.0 | 0.0 | 0.00 | 0.00 | 0.00 | 1 | 1008.8 |
| 20260508035146 | 2 | 360 | 0.0 | 0.0 | 0.00 | 0.00 | 0.00 | 1 | 1008.8 |
| 20260508035041 | 1 | 360 | 0.0 | 0.0 | 0.00 | 0.00 | 0.00 | 1 | 1008.8 |
| 20260508034945 | 2 | 360 | 0.0 | 0.0 | 0.00 | 0.00 | 0.00 | 1 | 1008.8 |
| 20260508034828 | 2 | 360 | 0.0 | 0.0 | 0.00 | 0.00 | 0.00 | 1 | 1008.9 |
| 20260508034750 | 2 | 360 | 0.0 | 0.0 | 0.00 | 0.00 | 0.00 | 1 | 1008.9 |
| 20260508034632 | 2 | 360 | 0.0 | 0.0 | 0.00 | 0.00 | 0.00 | 1 | 1008.9 |
| 20260508034554 | 2 | 360 | 0.0 | 0.0 | 0.00 | 0.00 | 0.00 | 1 | 1008.9 |
| 20260508034517 | 2 | 360 | 0.0 | 0.0 | 0.00 | 0.00 | 0.00 | 1 | 1008.9 |
| 20260508034344 | 2 | 360 | 0.0 | 0.0 | 0.00 | 0.00 | 0.00 | 1 | 1008.9 |
| 20260508034225 | 2 | 360 | 0.0 | 0.0 | 0.00 | 0.00 | 0.00 | 1 | 1008.9 |
| 20260508034139 | 2 | 360 | 0.0 | 0.0 | 0.00 | 0.00 | 0.00 | 1 | 1008.9 |
| 20260508034040 | 2 | 360 | 0.0 | 0.0 | 0.00 | 0.00 | 0.00 | 1 | 1008.9 |
| 20260508033943 | 2 | 360 | 0.0 | 0.0 | 0.00 | 0.00 | 0.00 | 1 | 1008.9 |
| 20260508033846 | 2 | 360 | 0.0 | 0.0 | 0.00 | 0.00 | 0.00 | 1 | 1008.9 |
| 20260508033807 | 2 | 360 | 0.0 | 0.0 | 0.00 | 0.00 | 0.00 | 1 | 1008.8 |
| 20260508033641 | 2 | 360 | 0.0 | 0.0 | 0.00 | 0.00 | 0.00 | 1 | 1008.9 |
| 20260508033543 | 2 | 360 | 0.0 | 0.0 | 0.00 | 0.00 | 0.00 | 1 | 1008.9 |
| 20260508033429 | 2 | 360 | 0.0 | 0.0 | 0.00 | 0.00 | 0.00 | 1 | 1008.9 |
| 20260508033349 | 2 | 360 | 0.0 | 0.0 | 0.00 | 0.00 | 0.00 | 1 | 1008.9 |
| 20260508033220 | 2 | 360 | 0.0 | 0.0 | 0.00 | 0.00 | 0.00 | 1 | 1008.8 |
| 20260508033115 | 2 | 360 | 0.0 | 0.0 | 0.00 | 0.00 | 0.00 | 1 | 1008.8 |
| 20260508032924 | 2 | 360 | 0.0 | 0.0 | 0.00 | 0.00 | 0.00 | 1 | 1008.8 |
| 20260508032839 | 2 | 360 | 0.0 | 0.0 | 0.00 | 0.00 | 0.00 | 1 | 1008.8 |
| 20260508032709 | 2 | 360 | 0.0 | 0.0 | 0.00 | 0.00 | 0.00 | 1 | 1008.8 |
| 20260508032630 | 2 | 360 | 0.0 | 0.0 | 0.00 | 0.00 | 0.00 | 1 | 1008.9 |
| 20260508032433 | 2 | 360 | 0.0 | 1.6 | 0.00 | 0.00 | 0.00 | 1 | 1008.9 |
| 20260508032357 | 2 | 360 | 0.0 | 1.6 | 0.00 | 0.00 | 0.00 | 1 | 1008.9 |
| 20260508032225 | 2 | 360 | 0.0 | 1.6 | 0.00 | 0.00 | 0.00 | 1 | 1008.9 |
| 20260508032141 | 2 | 360 | 0.0 | 1.6 | 0.00 | 0.00 | 0.00 | 1 | 1008.9 |
| 20260508031929 | 2 | 360 | 0.0 | 1.6 | 0.00 | 0.00 | 0.00 | 1 | 1008.8 |
| 20260508031842 | 2 | 360 | 0.0 | 1.6 | 0.00 | 0.00 | 0.00 | 1 | 1008.9 |
| 20260508031714 | 2 | 360 | 0.0 | 1.6 | 0.00 | 0.00 | 0.00 | 1 | 1008.8 |
| 20260508031636 | 2 | 360 | 0.0 | 0.0 | 0.00 | 0.00 | 0.00 | 1 | 1008.8 |
| 20260508031506 | 2 | 360 | 0.0 | 0.0 | 0.00 | 0.00 | 0.00 | 1 | 1008.8 |
| 20260508031420 | 2 | 360 | 0.0 | 0.0 | 0.00 | 0.00 | 0.00 | 1 | 1008.8 |
| 20260508031231 | 2 | 360 | 0.0 | 0.0 | 0.00 | 0.00 | 0.00 | 1 | 1008.8 |
| 20260508031145 | 2 | 360 | 0.0 | 0.0 | 0.00 | 0.00 | 0.00 | 1 | 1008.8 |
| 20260508031020 | 2 | 360 | 0.0 | 0.0 | 0.00 | 0.00 | 0.00 | 1 | 1008.8 |
| 20260508030941 | 2 | 360 | 0.0 | 0.0 | 0.00 | 0.00 | 0.00 | 1 | 1008.8 |
| 20260508030805 | 2 | 360 | 0.0 | 0.0 | 0.00 | 0.00 | 0.00 | 1 | 1008.7 |
| 20260508030728 | 2 | 360 | 0.0 | 0.0 | 0.00 | 0.00 | 0.00 | 1 | 1008.6 |
| 20260508030557 | 2 | 360 | 0.0 | 0.0 | 0.00 | 0.00 | 0.00 | 1 | 1008.7 |
| 20260508030500 | 2 | 360 | 0.0 | 0.0 | 0.00 | 0.00 | 0.00 | 1 | 1008.7 |
| 20260508030416 | 2 | 360 | 0.0 | 0.0 | 0.00 | 0.00 | 0.00 | 1 | 1008.7 |
| 20260508030225 | 2 | 360 | 0.0 | 0.0 | 0.00 | 0.00 | 0.00 | 1 | 1008.7 |
| 20260508030139 | 2 | 360 | 0.0 | 0.0 | 0.00 | 0.00 | 0.00 | 1 | 1008.7 |
| 20260508030041 | 2 | 360 | 0.0 | 0.0 | 0.00 | 0.00 | 0.00 | 1 | 1008.7 |
| 20260508025945 | 2 | 360 | 0.0 | 0.0 | 0.00 | 0.00 | 0.00 | 1 | 1008.7 |
| 20260508025850 | 2 | 360 | 0.0 | 0.0 | 0.00 | 0.00 | 0.00 | 1 | 1008.7 |
| 20260508025721 | 2 | 360 | 0.0 | 0.0 | 0.00 | 0.00 | 0.00 | 1 | 1008.7 |
| 20260508025635 | 2 | 360 | 0.0 | 0.0 | 0.00 | 0.00 | 0.00 | 1 | 1008.8 |
| 20260508025506 | 2 | 360 | 0.0 | 0.0 | 0.00 | 0.00 | 0.00 | 1 | 1008.8 |
| 20260508025428 | 2 | 360 | 0.0 | 0.0 | 0.00 | 0.00 | 0.00 | 1 | 1008.8 |
| 20260508025230 | 2 | 360 | 0.0 | 0.0 | 0.00 | 0.00 | 0.00 | 1 | 1008.8 |
| 20260508025151 | 2 | 360 | 0.0 | 0.0 | 0.00 | 0.00 | 0.00 | 1 | 1008.8 |
| 20260508025036 | 2 | 360 | 0.0 | 0.0 | 0.00 | 0.00 | 0.00 | 1 | 1008.7 |
| 20260508024930 | 2 | 360 | 0.0 | 0.0 | 0.00 | 0.00 | 0.00 | 1 | 1008.8 |
| 20260508024852 | 2 | 360 | 0.0 | 0.0 | 0.00 | 0.00 | 0.00 | 1 | 1008.8 |
| 20260508024818 | 2 | 360 | 0.0 | 0.0 | 0.00 | 0.00 | 0.00 | 1 | 1008.8 |
| 20260508024719 | 2 | 360 | 0.0 | 0.0 | 0.00 | 0.00 | 0.00 | 1 | 1008.8 |
| 20260508024521 | 2 | 360 | 0.0 | 0.0 | 0.00 | 0.00 | 0.00 | 1 | 1008.9 |
| 20260508024445 | 2 | 360 | 0.0 | 0.0 | 0.00 | 0.00 | 0.00 | 1 | 1008.9 |
| 20260508024349 | 2 | 360 | 0.0 | 0.0 | 0.00 | 0.00 | 0.00 | 1 | 1008.9 |
| 20260508024310 | 2 | 360 | 0.0 | 0.0 | 0.00 | 0.00 | 0.00 | 1 | 1008.9 |
| 20260508024118 | 2 | 360 | 0.0 | 0.0 | 0.00 | 0.00 | 0.00 | 1 | 1008.9 |
| 20260508024011 | 2 | 360 | 0.0 | 0.0 | 0.00 | 0.00 | 0.00 | 1 | 1008.9 |
| 20260508023818 | 2 | 360 | 0.0 | 0.0 | 0.00 | 0.00 | 0.00 | 1 | 1008.9 |
| 20260508023740 | 2 | 360 | 0.0 | 0.0 | 0.00 | 0.00 | 0.00 | 1 | 1008.9 |
| 20260508023550 | 2 | 360 | 0.0 | 0.0 | 0.00 | 0.00 | 0.00 | 1 | 1008.9 |
| 20260508023429 | 2 | 360 | 0.0 | 0.0 | 0.00 | 0.00 | 0.00 | 1 | 1008.8 |
| 20260508023332 | 2 | 360 | 0.0 | 0.0 | 0.00 | 0.00 | 0.00 | 1 | 1008.8 |
| 20260508023306 | 2 | 360 | 0.0 | 0.0 | 0.00 | 0.00 | 0.00 | 1 | 1008.8 |
| 20260508023204 | 2 | 360 | 0.0 | 0.0 | 0.00 | 0.00 | 0.00 | 1 | 1008.9 |
| 20260508023108 | 2 | 360 | 0.0 | 0.0 | 0.00 | 0.00 | 0.00 | 1 | 1008.8 |
| 20260508023030 | 2 | 360 | 0.0 | 0.0 | 0.00 | 0.00 | 0.00 | 1 | 1008.9 |
| 20260508022834 | 2 | 360 | 0.0 | 0.0 | 0.00 | 0.00 | 0.00 | 1 | 1008.9 |
| 20260508022736 | 2 | 360 | 0.0 | 0.0 | 0.00 | 0.00 | 0.00 | 1 | 1008.9 |
| 20260508022639 | 2 | 360 | 0.0 | 0.0 | 0.00 | 0.00 | 0.00 | 1 | 1008.9 |
| 20260508022547 | 2 | 360 | 0.0 | 0.0 | 0.00 | 0.00 | 0.00 | 1 | 1008.9 |
| 20260508022510 | 2 | 360 | 0.0 | 0.0 | 0.00 | 0.00 | 0.00 | 1 | 1008.9 |
| 20260508022332 | 2 | 360 | 0.0 | 0.0 | 0.00 | 0.00 | 0.00 | 1 | 1008.9 |
| 20260508022255 | 2 | 360 | 0.0 | 0.0 | 0.00 | 0.00 | 0.00 | 1 | 1008.9 |
| 20260508022130 | 2 | 360 | 0.0 | 0.0 | 0.00 | 0.00 | 0.00 | 1 | 1008.9 |
| 20260508022002 | 2 | 360 | 0.0 | 0.0 | 0.00 | 0.00 | 0.00 | 1 | 1008.8 |
| 20260508021835 | 2 | 360 | 0.0 | 0.0 | 0.00 | 0.00 | 0.00 | 1 | 1008.8 |
| 20260508021756 | 2 | 360 | 0.0 | 0.0 | 0.00 | 0.00 | 0.00 | 1 | 1008.8 |
| 20260508021640 | 2 | 360 | 0.0 | 0.0 | 0.00 | 0.00 | 0.00 | 1 | 1008.8 |
| 20260508021608 | 2 | 360 | 0.0 | 0.0 | 0.00 | 0.00 | 0.00 | 1 | 1008.8 |
| 20260508021423 | 2 | 360 | 0.0 | 0.0 | 0.00 | 0.00 | 0.00 | 1 | 1008.8 |
| 20260508021326 | 2 | 360 | 0.0 | 0.0 | 0.00 | 0.00 | 0.00 | 1 | 1008.8 |
| 20260508021249 | 2 | 360 | 0.0 | 0.0 | 0.00 | 0.00 | 0.00 | 1 | 1008.8 |
| 20260508021209 | 3 | 360 | 0.0 | 0.0 | 0.00 | 0.00 | 0.00 | 1 | 1008.8 |
| 20260508021054 | 3 | 360 | 0.0 | 0.0 | 0.00 | 0.00 | 0.00 | 1 | 1008.8 |
| 20260508020935 | 3 | 360 | 0.0 | 0.0 | 0.00 | 0.00 | 0.00 | 1 | 1008.8 |
| 20260508020838 | 3 | 360 | 0.0 | 0.0 | 0.00 | 0.00 | 0.00 | 1 | 1008.8 |
| 20260508020802 | 3 | 360 | 0.0 | 0.0 | 0.00 | 0.00 | 0.00 | 1 | 1008.8 |
| 20260508020724 | 3 | 360 | 0.0 | 0.0 | 0.00 | 0.00 | 0.00 | 1 | 1008.8 |
| 20260508020610 | 3 | 360 | 0.0 | 0.0 | 0.00 | 0.00 | 0.00 | 1 | 1008.7 |
| 20260508020424 | 3 | 360 | 0.0 | 0.0 | 0.00 | 0.00 | 0.00 | 1 | 1008.7 |
| 20260508020329 | 3 | 360 | 0.0 | 0.0 | 0.00 | 0.00 | 0.00 | 1 | 1008.7 |
| 20260508020250 | 3 | 360 | 0.0 | 0.0 | 0.00 | 0.00 | 0.00 | 1 | 1008.7 |
| 20260508020031 | 3 | 360 | 0.0 | 0.0 | 0.00 | 0.00 | 0.00 | 1 | 1008.6 |
| 20260508015934 | 3 | 360 | 0.0 | 0.0 | 0.00 | 0.03 | 0.00 | 1 | 1008.6 |
| 20260508015837 | 3 | 360 | 0.0 | 0.0 | 0.00 | 0.03 | 0.00 | 1 | 1008.8 |
| 20260508015759 | 3 | 360 | 0.0 | 0.0 | 0.00 | 0.03 | 0.00 | 1 | 1008.8 |
| 20260508015719 | 3 | 360 | 0.0 | 0.0 | 0.00 | 0.03 | 0.00 | 1 | 1008.7 |
| 20260508015536 | 3 | 360 | 0.0 | 0.0 | 0.00 | 0.03 | 0.00 | 1 | 1008.7 |
| 20260508015459 | 3 | 360 | 0.0 | 0.0 | 0.00 | 0.03 | 0.00 | 1 | 1008.7 |
| 20260508015325 | 3 | 360 | 0.0 | 0.0 | 0.00 | 0.03 | 0.00 | 1 | 1008.6 |
| 20260508015239 | 3 | 360 | 0.0 | 0.0 | 0.00 | 0.03 | 0.00 | 1 | 1008.6 |
| 20260508015109 | 3 | 360 | 0.0 | 0.0 | 0.00 | 0.03 | 0.00 | 1 | 1008.6 |
| 20260508015030 | 3 | 360 | 0.0 | 0.0 | 0.00 | 0.03 | 0.00 | 1 | 1008.6 |
| 20260508014813 | 3 | 360 | 0.0 | 0.0 | 0.00 | 0.03 | 0.00 | 1 | 1008.6 |
| 20260508014746 | 3 | 360 | 0.0 | 0.0 | 0.00 | 0.03 | 0.00 | 1 | 1008.6 |
| 20260508014614 | 3 | 360 | 0.0 | 0.0 | 0.00 | 0.03 | 0.00 | 1 | 1008.6 |
| 20260508014540 | 3 | 360 | 0.0 | 0.0 | 0.00 | 0.03 | 0.00 | 1 | 1008.6 |
| 20260508014442 | 3 | 360 | 0.0 | 0.0 | 0.00 | 0.03 | 0.00 | 1 | 1008.5 |
| 20260508014325 | 3 | 360 | 0.0 | 0.0 | 0.00 | 0.03 | 0.00 | 1 | 1008.5 |
| 20260508014248 | 3 | 360 | 0.0 | 0.0 | 0.00 | 0.03 | 0.00 | 1 | 1008.5 |
| 20260508014123 | 3 | 360 | 0.0 | 1.6 | 0.00 | 0.03 | 0.00 | 1 | 1008.5 |
| 20260508014026 | 3 | 360 | 0.0 | 1.6 | 0.00 | 0.03 | 0.00 | 1 | 1008.5 |
| 20260508013953 | 3 | 360 | 0.0 | 1.6 | 0.00 | 0.03 | 0.00 | 1 | 1008.5 |
| 20260508013735 | 3 | 360 | 0.0 | 1.6 | 0.00 | 0.03 | 0.00 | 1 | 1008.5 |
| 20260508013638 | 3 | 360 | 0.0 | 1.6 | 0.00 | 0.03 | 0.00 | 1 | 1008.4 |
| 20260508013541 | 3 | 360 | 0.0 | 1.6 | 0.00 | 0.03 | 0.00 | 1 | 1008.5 |
| 20260508013505 | 3 | 360 | 0.0 | 1.6 | 0.00 | 0.03 | 0.00 | 1 | 1008.5 |
| 20260508013426 | 3 | 360 | 0.0 | 1.6 | 0.00 | 0.03 | 0.00 | 1 | 1008.4 |
| 20260508013228 | 4 | 360 | 0.0 | 1.6 | 0.00 | 0.03 | 0.00 | 1 | 1008.4 |
| 20260508013151 | 4 | 360 | 0.0 | 0.0 | 0.00 | 0.03 | 0.00 | 1 | 1008.4 |
| 20260508013034 | 4 | 360 | 0.0 | 0.0 | 0.00 | 0.03 | 0.00 | 1 | 1008.3 |
| 20260508013000 | 4 | 360 | 0.0 | 0.0 | 0.00 | 0.03 | 0.00 | 1 | 1008.3 |
| 20260508012923 | 4 | 360 | 0.0 | 0.0 | 0.00 | 0.03 | 0.00 | 1 | 1008.4 |
| 20260508012724 | 4 | 360 | 0.0 | 0.0 | 0.00 | 0.03 | 0.00 | 1 | 1008.4 |
| 20260508012648 | 4 | 360 | 0.0 | 0.0 | 0.00 | 0.03 | 0.00 | 1 | 1008.4 |
| 20260508012532 | 4 | 360 | 0.0 | 0.0 | 0.00 | 0.03 | 0.00 | 1 | 1008.4 |
| 20260508012455 | 4 | 360 | 0.0 | 0.0 | 0.00 | 0.03 | 0.00 | 1 | 1008.4 |
| 20260508012340 | 4 | 360 | 0.0 | 0.0 | 0.00 | 0.03 | 0.00 | 1 | 1008.4 |
| 20260508012239 | 4 | 360 | 0.0 | 0.0 | 0.00 | 0.03 | 0.00 | 1 | 1008.4 |
| 20260508012111 | 4 | 360 | 0.0 | 1.6 | 0.00 | 0.03 | 0.00 | 1 | 1008.4 |
| 20260508012005 | 4 | 360 | 0.0 | 1.6 | 0.00 | 0.03 | 0.00 | 1 | 1008.4 |
| 20260508011925 | 4 | 360 | 0.0 | 1.6 | 0.00 | 0.03 | 0.00 | 1 | 1008.4 |
| 20260508011738 | 4 | 360 | 0.0 | 1.6 | 0.00 | 0.03 | 0.00 | 1 | 1008.4 |
| 20260508011631 | 4 | 360 | 0.0 | 1.6 | 0.00 | 0.03 | 0.00 | 1 | 1008.4 |
| 20260508011442 | 5 | 360 | 0.0 | 1.6 | 0.00 | 0.03 | 0.00 | 1 | 1008.4 |
| 20260508011339 | 5 | 360 | 0.0 | 1.6 | 0.00 | 0.03 | 0.00 | 1 | 1008.3 |
| 20260508011233 | 5 | 360 | 0.0 | 1.6 | 0.00 | 0.03 | 0.00 | 2 | 1008.3 |
| 20260508011134 | 5 | 360 | 0.0 | 0.0 | 0.00 | 0.03 | 0.00 | 2 | 1008.3 |
| 20260508011050 | 5 | 360 | 0.0 | 0.0 | 0.00 | 0.03 | 0.00 | 2 | 1008.3 |
| 20260508010951 | 5 | 360 | 0.0 | 0.0 | 0.00 | 0.03 | 0.00 | 2 | 1008.3 |
| 20260508010825 | 5 | 360 | 0.0 | 0.0 | 0.00 | 0.03 | 0.00 | 4 | 1008.2 |
| 20260508010718 | 5 | 360 | 0.0 | 0.0 | 0.00 | 0.03 | 0.00 | 5 | 1008.2 |
| 20260508010530 | 5 | 360 | 0.0 | 0.0 | 0.00 | 0.03 | 0.00 | 7 | 1008.2 |
| 20260508010444 | 5 | 360 | 0.0 | 0.0 | 0.00 | 0.03 | 0.00 | 7 | 1008.2 |
| 20260508010314 | 5 | 360 | 0.0 | 0.0 | 0.00 | 0.03 | 0.00 | 7 | 1008.2 |
| 20260508010236 | 5 | 360 | 0.0 | 0.0 | 0.00 | 0.03 | 0.00 | 8 | 1008.2 |
| 20260508010100 | 5 | 360 | 0.0 | 0.0 | 0.00 | 0.03 | 0.00 | 8 | 1008.2 |
| 20260508010022 | 5 | 360 | 0.0 | 0.0 | 0.00 | 0.03 | 0.00 | 8 | 1008.2 |
| 20260508005833 | 5 | 360 | 0.0 | 0.0 | 0.00 | 0.13 | 0.00 | 9 | 1008.2 |
| 20260508005726 | 5 | 360 | 0.0 | 0.0 | 0.00 | 0.13 | 0.00 | 9 | 1008.1 |
| 20260508005654 | 5 | 360 | 0.0 | 0.0 | 0.00 | 0.13 | 0.00 | 10 | 1008.1 |
| 20260508005558 | 5 | 360 | 0.0 | 0.0 | 0.00 | 0.13 | 0.00 | 9 | 1008.1 |
| 20260508005458 | 5 | 360 | 0.0 | 0.0 | 0.00 | 0.13 | 0.00 | 8 | 1008.1 |
| 20260508005400 | 5 | 360 | 0.0 | 0.0 | 0.00 | 0.13 | 0.00 | 8 | 1008.1 |
| 20260508005305 | 6 | 360 | 0.0 | 0.0 | 0.00 | 0.13 | 0.00 | 10 | 1008.1 |
| 20260508005202 | 6 | 360 | 0.0 | 0.0 | 0.00 | 0.13 | 0.00 | 11 | 1008.1 |
| 20260508005124 | 6 | 360 | 0.0 | 0.0 | 0.00 | 0.13 | 0.00 | 11 | 1008.1 |
| 20260508004926 | 6 | 360 | 0.0 | 0.0 | 0.00 | 0.13 | 0.00 | 14 | 1008.1 |
| 20260508004850 | 6 | 360 | 0.0 | 0.0 | 0.00 | 0.13 | 0.00 | 14 | 1008.1 |
| 20260508004732 | 6 | 360 | 0.0 | 0.0 | 0.00 | 0.13 | 0.00 | 14 | 1008.1 |
| 20260508004654 | 6 | 360 | 0.0 | 0.0 | 0.00 | 0.13 | 0.00 | 14 | 1008.1 |
| 20260508004621 | 6 | 360 | 0.0 | 0.0 | 0.00 | 0.13 | 0.00 | 14 | 1008.0 |
| 20260508004424 | 6 | 360 | 0.0 | 0.0 | 0.00 | 0.13 | 0.00 | 16 | 1008.0 |
| 20260508004345 | 6 | 360 | 0.0 | 0.0 | 0.00 | 0.13 | 0.00 | 16 | 1008.0 |
| 20260508004244 | 6 | 360 | 0.0 | 0.0 | 0.00 | 0.13 | 0.00 | 21 | 1008.0 |
| 20260508004141 | 6 | 360 | 0.0 | 0.0 | 0.00 | 0.13 | 0.00 | 22 | 1008.0 |
| 20260508004010 | 6 | 360 | 0.0 | 0.0 | 0.00 | 0.13 | 0.00 | 21 | 1007.9 |
| 20260508003922 | 6 | 360 | 0.0 | 0.0 | 0.00 | 0.13 | 0.00 | 21 | 1008.0 |
| 20260508003730 | 6 | 360 | 0.0 | 0.0 | 0.00 | 0.13 | 0.00 | 22 | 1007.9 |
| 20260508003642 | 6 | 360 | 0.0 | 0.0 | 0.00 | 0.13 | 0.00 | 23 | 1007.9 |
| 20260508003510 | 6 | 360 | 0.0 | 0.0 | 0.00 | 0.13 | 0.00 | 24 | 1007.9 |
| 20260508003428 | 6 | 360 | 0.0 | 0.0 | 0.00 | 0.13 | 0.00 | 25 | 1007.9 |
| 20260508003235 | 6 | 360 | 0.0 | 1.6 | 0.00 | 0.13 | 0.00 | 26 | 1007.8 |
| 20260508003159 | 6 | 360 | 0.0 | 1.6 | 0.00 | 0.13 | 0.00 | 26 | 1007.8 |
| 20260508003045 | 6 | 360 | 0.0 | 1.6 | 0.00 | 0.13 | 0.00 | 26 | 1007.8 |
| 20260508002946 | 6 | 360 | 0.0 | 1.6 | 0.00 | 0.13 | 0.00 | 26 | 1007.8 |
| 20260508002818 | 6 | 360 | 0.0 | 1.6 | 0.00 | 0.13 | 0.00 | 26 | 1007.8 |
| 20260508002733 | 6 | 360 | 0.0 | 1.6 | 0.00 | 0.13 | 0.00 | 26 | 1007.8 |
| 20260508002603 | 7 | 360 | 0.0 | 1.6 | 0.00 | 0.13 | 0.00 | 26 | 1007.8 |
| 20260508002505 | 7 | 360 | 0.0 | 1.6 | 0.00 | 0.13 | 0.00 | 26 | 1007.8 |
| 20260508002421 | 7 | 360 | 0.0 | 1.6 | 0.00 | 0.13 | 0.00 | 25 | 1007.8 |
| 20260508002250 | 7 | 360 | 1.6 | 1.6 | 0.00 | 0.13 | 0.00 | 24 | 1007.8 |
| 20260508002151 | 7 | 360 | 0.0 | 1.6 | 0.00 | 0.13 | 0.00 | 22 | 1007.8 |
| 20260508002035 | 7 | 360 | 0.0 | 0.0 | 0.00 | 0.13 | 0.00 | 20 | 1007.8 |
| 20260508001956 | 7 | 360 | 0.0 | 0.0 | 0.00 | 0.13 | 0.00 | 19 | 1007.8 |
| 20260508001836 | 7 | 360 | 0.0 | 0.0 | 0.00 | 0.13 | 0.00 | 21 | 1007.8 |
| 20260508001755 | 7 | 360 | 0.0 | 0.0 | 0.00 | 0.13 | 0.00 | 22 | 1007.8 |
| 20260508001635 | 7 | 360 | 0.0 | 0.0 | 0.00 | 0.13 | 0.00 | 23 | 1007.8 |
| 20260508001556 | 7 | 360 | 0.0 | 0.0 | 0.00 | 0.13 | 0.00 | 23 | 1007.8 |
| 20260508001438 | 7 | 360 | 0.0 | 0.0 | 0.00 | 0.13 | 0.00 | 25 | 1007.8 |
| 20260508001340 | 7 | 360 | 0.0 | 0.0 | 0.00 | 0.13 | 0.00 | 25 | 1007.8 |
| 20260508001159 | 7 | 360 | 0.0 | 0.0 | 0.00 | 0.13 | 0.00 | 24 | 1007.9 |
| 20260508001101 | 7 | 360 | 0.0 | 0.0 | 0.00 | 0.13 | 0.00 | 24 | 1007.8 |
| 20260508000927 | 7 | 360 | 0.0 | 0.0 | 0.00 | 0.13 | 0.00 | 24 | 1007.8 |
| 20260508000848 | 7 | 360 | 0.0 | 0.0 | 0.00 | 0.13 | 0.00 | 22 | 1007.8 |
| 20260508000729 | 7 | 360 | 0.0 | 0.0 | 0.00 | 0.13 | 0.00 | 20 | 1007.8 |
| 20260508000650 | 8 | 360 | 0.0 | 0.0 | 0.00 | 0.13 | 0.00 | 19 | 1007.8 |
| 20260508000610 | 8 | 360 | 0.0 | 0.0 | 0.00 | 0.13 | 0.00 | 19 | 1007.9 |
| 20260508000511 | 8 | 360 | 0.0 | 0.0 | 0.00 | 0.13 | 0.00 | 18 | 1007.8 |
| 20260508000430 | 8 | 360 | 0.0 | 0.0 | 0.00 | 0.13 | 0.00 | 18 | 1007.8 |
| 20260508000230 | 8 | 360 | 0.0 | 0.0 | 0.00 | 0.13 | 0.00 | 25 | 1007.8 |
| 20260508000133 | 8 | 360 | 0.0 | 0.0 | 0.00 | 0.13 | 0.00 | 28 | 1007.8 |
| 20260508000038 | 8 | 360 | 0.0 | 0.0 | 0.00 | 0.13 | 0.00 | 29 | 1007.8 |
| 20260507235942 | 8 | 360 | 0.0 | 0.0 | 0.00 | 0.13 | 0.00 | 30 | 1007.8 |
| 20260507235904 | 8 | 360 | 0.0 | 0.0 | 0.00 | 0.15 | 0.00 | 32 | 1007.8 |
| 20260507235807 | 8 | 360 | 0.0 | 0.0 | 0.00 | 0.15 | 0.00 | 33 | 1007.8 |
| 20260507235729 | 8 | 360 | 0.0 | 0.0 | 0.00 | 0.15 | 0.00 | 33 | 1007.9 |
| 20260507235600 | 8 | 360 | 0.0 | 0.0 | 0.00 | 0.15 | 0.00 | 32 | 1007.9 |
| 20260507235454 | 8 | 360 | 0.0 | 0.0 | 0.00 | 0.15 | 0.00 | 33 | 1007.9 |
| 20260507235243 | 8 | 360 | 0.0 | 0.0 | 0.00 | 0.15 | 0.00 | 38 | 1007.8 |
| 20260507235137 | 8 | 360 | 0.0 | 0.0 | 0.00 | 0.15 | 0.00 | 38 | 1007.9 |
| 20260507235032 | 8 | 360 | 0.0 | 0.0 | 0.00 | 0.15 | 0.00 | 39 | 1007.8 |
| 20260507234959 | 8 | 360 | 0.0 | 0.0 | 0.00 | 0.15 | 0.00 | 39 | 1007.8 |
| 20260507234828 | 8 | 360 | 0.0 | 1.6 | 0.00 | 0.15 | 0.00 | 39 | 1007.8 |
| 20260507234724 | 8 | 360 | 0.0 | 1.6 | 0.00 | 0.15 | 0.00 | 40 | 1007.8 |
| 20260507234535 | 8 | 360 | 0.0 | 1.6 | 0.00 | 0.15 | 0.00 | 42 | 1007.8 |
| 20260507234446 | 8 | 360 | 0.0 | 1.6 | 0.00 | 0.15 | 0.00 | 44 | 1007.8 |
| 20260507234234 | 8 | 360 | 0.0 | 1.6 | 0.00 | 0.15 | 0.00 | 46 | 1007.8 |
| 20260507234148 | 8 | 360 | 0.0 | 1.6 | 0.00 | 0.15 | 0.00 | 47 | 1007.8 |
| 20260507234020 | 8 | 335 | 0.0 | 0.0 | 0.00 | 0.15 | 0.00 | 48 | 1007.8 |
| 20260507233940 | 8 | 336 | 0.0 | 0.0 | 0.00 | 0.15 | 0.00 | 48 | 1007.8 |
| 20260507233758 | 9 | 332 | 0.0 | 0.0 | 0.00 | 0.15 | 0.00 | 48 | 1007.7 |
| 20260507233636 | 9 | 332 | 0.0 | 0.0 | 0.00 | 0.15 | 0.00 | 49 | 1007.7 |
| 20260507233559 | 9 | 332 | 0.0 | 0.0 | 0.00 | 0.15 | 0.00 | 49 | 1007.7 |
| 20260507233425 | 9 | 332 | 0.0 | 0.0 | 0.00 | 0.15 | 0.00 | 48 | 1007.7 |
| 20260507233342 | 9 | 332 | 0.0 | 0.0 | 0.00 | 0.15 | 0.00 | 49 | 1007.8 |
| 20260507233210 | 9 | 332 | 0.0 | 1.6 | 0.00 | 0.15 | 0.00 | 51 | 1007.8 |
| 20260507233131 | 9 | 332 | 0.0 | 1.6 | 0.00 | 0.15 | 0.00 | 52 | 1007.7 |
| 20260507232935 | 9 | 332 | 0.0 | 1.6 | 0.00 | 0.15 | 0.00 | 53 | 1007.7 |
| 20260507232859 | 9 | 332 | 0.0 | 1.6 | 0.00 | 0.15 | 0.00 | 53 | 1007.7 |
| 20260507232802 | 9 | 332 | 0.0 | 1.6 | 0.00 | 0.15 | 0.00 | 53 | 1007.7 |
| 20260507232649 | 9 | 332 | 0.0 | 1.6 | 0.00 | 0.15 | 0.00 | 53 | 1007.7 |
| 20260507232524 | 9 | 332 | 0.0 | 1.6 | 0.00 | 0.15 | 0.00 | 53 | 1007.7 |
| 20260507232439 | 9 | 332 | 1.6 | 1.6 | 0.00 | 0.15 | 0.00 | 52 | 1007.7 |
| 20260507232308 | 9 | 332 | 0.0 | 1.6 | 0.00 | 0.15 | 0.00 | 52 | 1007.7 |
| 20260507232230 | 10 | 332 | 0.0 | 3.2 | 0.00 | 0.15 | 0.00 | 52 | 1007.7 |
| 20260507232032 | 10 | 332 | 0.0 | 3.2 | 0.00 | 0.15 | 0.00 | 49 | 1007.7 |
| 20260507231955 | 10 | 332 | 0.0 | 3.2 | 0.00 | 0.15 | 0.00 | 49 | 1007.7 |
| 20260507231838 | 10 | 332 | 0.0 | 3.2 | 0.00 | 0.15 | 0.00 | 52 | 1007.7 |
| 20260507231746 | 10 | 332 | 0.0 | 3.2 | 0.00 | 0.15 | 0.00 | 52 | 1007.7 |
| 20260507231641 | 10 | 332 | 0.0 | 3.2 | 0.00 | 0.15 | 0.00 | 48 | 1007.7 |
| 20260507231604 | 10 | 332 | 0.0 | 3.2 | 0.00 | 0.15 | 0.00 | 48 | 1007.7 |
| 20260507231508 | 10 | 327 | 0.0 | 3.2 | 0.00 | 0.15 | 0.00 | 49 | 1007.7 |
| 20260507231430 | 10 | 327 | 0.0 | 3.2 | 0.00 | 0.15 | 0.00 | 50 | 1007.7 |
| 20260507231234 | 10 | 327 | 0.0 | 1.6 | 0.00 | 0.15 | 0.00 | 49 | 1007.8 |
| 20260507231134 | 10 | 327 | 0.0 | 1.6 | 0.00 | 0.15 | 0.00 | 51 | 1007.8 |
| 20260507231016 | 10 | 331 | 0.0 | 1.6 | 0.00 | 0.15 | 0.00 | 51 | 1007.8 |
| 20260507230936 | 10 | 331 | 0.0 | 1.6 | 0.00 | 0.15 | 0.00 | 51 | 1007.8 |
| 20260507230816 | 10 | 24 | 0.0 | 1.6 | 0.00 | 0.15 | 0.00 | 49 | 1007.8 |
| 20260507230736 | 10 | 24 | 0.0 | 1.6 | 0.00 | 0.15 | 0.00 | 48 | 1007.8 |
| 20260507230605 | 10 | 26 | 0.0 | 1.6 | 0.00 | 0.15 | 0.00 | 49 | 1007.8 |
| 20260507230527 | 10 | 26 | 0.0 | 1.6 | 0.00 | 0.15 | 0.00 | 49 | 1007.8 |
| 20260507230332 | 10 | 24 | 0.0 | 1.6 | 0.00 | 0.15 | 0.00 | 47 | 1007.8 |
| 20260507230234 | 10 | 29 | 0.0 | 3.2 | 0.00 | 0.15 | 0.00 | 47 | 1007.7 |
| 20260507230136 | 10 | 31 | 0.0 | 3.2 | 0.00 | 0.15 | 0.00 | 45 | 1007.7 |
| 20260507230058 | 10 | 31 | 0.0 | 3.2 | 0.00 | 0.15 | 0.00 | 47 | 1007.7 |
| 20260507225927 | 10 | 274 | 0.0 | 3.2 | 0.00 | 0.15 | 0.00 | 47 | 1007.7 |
| 20260507225822 | 10 | 274 | 0.0 | 3.2 | 0.00 | 0.15 | 0.00 | 47 | 1007.7 |
| 20260507225629 | 10 | 274 | 0.0 | 4.8 | 0.00 | 0.15 | 0.00 | 46 | 1007.7 |
| 20260507225552 | 10 | 274 | 0.0 | 4.8 | 0.00 | 0.15 | 0.00 | 46 | 1007.7 |
| 20260507225439 | 10 | 274 | 0.0 | 4.8 | 0.00 | 0.15 | 0.00 | 47 | 1007.7 |
| 20260507225402 | 10 | 274 | 0.0 | 4.8 | 0.00 | 0.15 | 0.00 | 47 | 1007.7 |
| 20260507225324 | 10 | 274 | 1.6 | 4.8 | 0.00 | 0.15 | 0.00 | 47 | 1007.7 |
| 20260507225128 | 10 | 295 | 0.0 | 14.5 | 0.00 | 0.15 | 0.00 | 46 | 1007.7 |
| 20260507225032 | 10 | 295 | 0.0 | 14.5 | 0.00 | 0.15 | 0.00 | 45 | 1007.7 |
| 20260507224934 | 10 | 295 | 1.6 | 14.5 | 0.00 | 0.15 | 0.00 | 45 | 1007.7 |
| 20260507224857 | 10 | 295 | 3.2 | 14.5 | 0.00 | 0.15 | 0.00 | 45 | 1007.7 |
| 20260507224820 | 10 | 295 | 3.2 | 14.5 | 0.00 | 0.15 | 0.00 | 45 | 1007.7 |
| 20260507224641 | 10 | 269 | 3.2 | 14.5 | 0.00 | 0.15 | 0.00 | 47 | 1007.7 |
| 20260507224544 | 10 | 300 | 4.8 | 14.5 | 0.00 | 0.15 | 0.00 | 45 | 1007.7 |
| 20260507224434 | 10 | 298 | 8.0 | 14.5 | 0.00 | 0.15 | 0.00 | 45 | 1007.6 |
| 20260507224327 | 10 | 331 | 8.0 | 14.5 | 0.00 | 0.15 | 0.00 | 46 | 1007.5 |
| 20260507224250 | 10 | 296 | 8.0 | 16.1 | 0.00 | 0.15 | 0.00 | 45 | 1007.5 |
| 20260507224211 | 10 | 334 | 8.0 | 16.1 | 0.00 | 0.15 | 0.00 | 45 | 1007.5 |
| 20260507224106 | 10 | 336 | 9.7 | 16.1 | 0.00 | 0.15 | 0.00 | 45 | 1007.5 |
| 20260507223914 | 10 | 5 | 9.7 | 16.1 | 0.00 | 0.15 | 0.00 | 44 | 1007.6 |
| 20260507223837 | 10 | 337 | 11.3 | 16.1 | 0.00 | 0.15 | 0.00 | 44 | 1007.5 |
| 20260507223708 | 10 | 360 | 8.0 | 16.1 | 0.00 | 0.15 | 0.00 | 44 | 1007.6 |
| 20260507223622 | 10 | 338 | 6.4 | 16.1 | 0.00 | 0.15 | 0.00 | 44 | 1007.5 |
| 20260507223432 | 10 | 329 | 6.4 | 16.1 | 0.00 | 0.15 | 0.00 | 44 | 1007.5 |
| 20260507223330 | 10 | 324 | 6.4 | 16.1 | 0.00 | 0.15 | 0.00 | 43 | 1007.5 |
| 20260507223254 | 10 | 343 | 8.0 | 16.1 | 0.00 | 0.15 | 0.00 | 43 | 1007.5 |
| 20260507223157 | 10 | 333 | 8.0 | 16.1 | 0.00 | 0.15 | 0.00 | 43 | 1007.5 |
| 20260507223118 | 11 | 317 | 8.0 | 16.1 | 0.00 | 0.15 | 0.00 | 43 | 1007.5 |
| 20260507222950 | 11 | 315 | 9.7 | 16.1 | 0.00 | 0.15 | 0.00 | 42 | 1007.5 |
| 20260507222825 | 11 | 311 | 9.7 | 16.1 | 0.00 | 0.15 | 0.00 | 43 | 1007.4 |
| 20260507222720 | 11 | 315 | 9.7 | 16.1 | 0.00 | 0.15 | 0.00 | 43 | 1007.5 |
| 20260507222654 | 11 | 355 | 11.3 | 16.1 | 0.00 | 0.15 | 0.00 | 42 | 1007.5 |
| 20260507222617 | 11 | 321 | 11.3 | 16.1 | 0.00 | 0.15 | 0.00 | 42 | 1007.5 |
| 20260507222426 | 11 | 342 | 8.0 | 16.1 | 0.00 | 0.15 | 0.00 | 43 | 1007.5 |
| 20260507222329 | 11 | 10 | 8.0 | 17.7 | 0.00 | 0.15 | 0.00 | 41 | 1007.4 |
| 20260507222229 | 11 | 312 | 9.7 | 17.7 | 0.00 | 0.15 | 0.00 | 41 | 1007.5 |
| 20260507222151 | 11 | 299 | 9.7 | 17.7 | 0.00 | 0.15 | 0.00 | 41 | 1007.4 |
| 20260507221936 | 11 | 5 | 9.7 | 17.7 | 0.00 | 0.15 | 0.00 | 42 | 1007.4 |
| 20260507221838 | 11 | 350 | 6.4 | 17.7 | 0.00 | 0.15 | 0.00 | 41 | 1007.4 |
| 20260507221739 | 11 | 341 | 6.4 | 17.7 | 0.00 | 0.15 | 0.00 | 42 | 1007.4 |
| 20260507221643 | 11 | 341 | 8.0 | 17.7 | 0.00 | 0.15 | 0.00 | 42 | 1007.4 |
| 20260507221558 | 11 | 319 | 6.4 | 17.7 | 0.00 | 0.15 | 0.00 | 42 | 1007.4 |
| 20260507221410 | 11 | 343 | 6.4 | 17.7 | 0.00 | 0.15 | 0.00 | 42 | 1007.4 |
| 20260507221333 | 11 | 319 | 6.4 | 19.3 | 0.00 | 0.15 | 0.00 | 42 | 1007.5 |
| 20260507221135 | 11 | 355 | 6.4 | 19.3 | 0.00 | 0.15 | 0.00 | 41 | 1007.5 |
| 20260507221058 | 11 | 28 | 8.0 | 19.3 | 0.00 | 0.15 | 0.00 | 41 | 1007.5 |
| 20260507220924 | 11 | 32 | 12.9 | 22.5 | 0.00 | 0.15 | 0.00 | 40 | 1007.5 |
| 20260507220827 | 11 | 338 | 11.3 | 22.5 | 0.00 | 0.15 | 0.00 | 41 | 1007.4 |
| 20260507220751 | 11 | 321 | 11.3 | 22.5 | 0.00 | 0.15 | 0.00 | 40 | 1007.4 |
| 20260507220712 | 11 | 302 | 9.7 | 22.5 | 0.00 | 0.15 | 0.00 | 40 | 1007.4 |
| 20260507220615 | 11 | 287 | 12.9 | 22.5 | 0.00 | 0.15 | 0.00 | 41 | 1007.4 |
| 20260507220538 | 11 | 311 | 14.5 | 22.5 | 0.00 | 0.15 | 0.00 | 40 | 1007.5 |
| 20260507220330 | 11 | 333 | 12.9 | 22.5 | 0.00 | 0.15 | 0.00 | 41 | 1007.4 |
| 20260507220224 | 11 | 309 | 16.1 | 22.5 | 0.00 | 0.15 | 0.00 | 39 | 1007.4 |
| 20260507220146 | 11 | 310 | 14.5 | 22.5 | 0.00 | 0.15 | 0.00 | 39 | 1007.4 |
| 20260507220050 | 11 | 319 | 12.9 | 22.5 | 0.00 | 0.15 | 0.00 | 41 | 1007.5 |
| 20260507220013 | 11 | 343 | 9.7 | 19.3 | 0.00 | 0.15 | 0.00 | 40 | 1007.4 |
| 20260507215913 | 11 | 319 | 9.7 | 19.3 | 0.00 | 0.20 | 0.00 | 40 | 1007.4 |
| 20260507215818 | 11 | 13 | 8.0 | 19.3 | 0.00 | 0.20 | 0.00 | 41 | 1007.4 |
| 20260507215740 | 11 | 345 | 9.7 | 19.3 | 0.00 | 0.20 | 0.00 | 41 | 1007.4 |
| 20260507215611 | 11 | 337 | 6.4 | 19.3 | 0.00 | 0.20 | 0.00 | 41 | 1007.4 |
| 20260507215525 | 11 | 12 | 4.8 | 16.1 | 0.00 | 0.20 | 0.00 | 42 | 1007.4 |
| 20260507215331 | 11 | 250 | 4.8 | 19.3 | 0.00 | 0.20 | 0.00 | 43 | 1007.5 |
| 20260507215257 | 11 | 264 | 3.2 | 19.3 | 0.00 | 0.20 | 0.00 | 43 | 1007.5 |
| 20260507215157 | 11 | 337 | 1.6 | 19.3 | 0.00 | 0.20 | 0.00 | 44 | 1007.5 |
| 20260507215040 | 11 | 317 | 6.4 | 19.3 | 0.00 | 0.20 | 0.00 | 41 | 1007.5 |
| 20260507215004 | 11 | 303 | 9.7 | 19.3 | 0.00 | 0.20 | 0.00 | 40 | 1007.5 |
| 20260507214825 | 11 | 288 | 8.0 | 19.3 | 0.00 | 0.20 | 0.00 | 42 | 1007.5 |
| 20260507214746 | 11 | 294 | 8.0 | 20.9 | 0.00 | 0.20 | 0.00 | 42 | 1007.5 |
| 20260507214642 | 11 | 324 | 9.7 | 20.9 | 0.00 | 0.20 | 0.00 | 41 | 1007.5 |
| 20260507214525 | 11 | 281 | 12.9 | 20.9 | 0.00 | 0.20 | 0.00 | 41 | 1007.4 |
| 20260507214448 | 11 | 326 | 9.7 | 20.9 | 0.00 | 0.20 | 0.00 | 43 | 1007.4 |
| 20260507214415 | 11 | 339 | 8.0 | 20.9 | 0.00 | 0.20 | 0.00 | 43 | 1007.4 |
| 20260507214319 | 11 | 5 | 3.2 | 20.9 | 0.00 | 0.20 | 0.00 | 42 | 1007.5 |
| 20260507214220 | 11 | 41 | 3.2 | 20.9 | 0.00 | 0.20 | 0.00 | 41 | 1007.5 |
| 20260507214023 | 11 | 319 | 9.7 | 22.5 | 0.00 | 0.20 | 0.00 | 41 | 1007.5 |
| 20260507213925 | 11 | 342 | 9.7 | 22.5 | 0.00 | 0.20 | 0.00 | 41 | 1007.4 |
| 20260507213828 | 11 | 342 | 9.7 | 22.5 | 0.00 | 0.20 | 0.00 | 41 | 1007.4 |
| 20260507213801 | 11 | 348 | 12.9 | 22.5 | 0.00 | 0.20 | 0.00 | 38 | 1007.4 |
| 20260507213722 | 11 | 290 | 14.5 | 22.5 | 0.00 | 0.20 | 0.00 | 38 | 1007.4 |
| 20260507213525 | 11 | 323 | 12.9 | 25.7 | 0.00 | 0.20 | 0.00 | 39 | 1007.4 |
| 20260507213430 | 11 | 331 | 11.3 | 25.7 | 0.00 | 0.20 | 0.00 | 38 | 1007.4 |
| 20260507213334 | 11 | 340 | 12.9 | 25.7 | 0.00 | 0.20 | 0.00 | 38 | 1007.3 |
| 20260507213235 | 11 | 355 | 11.3 | 25.7 | 0.00 | 0.20 | 0.00 | 39 | 1007.3 |
| 20260507213106 | 11 | 323 | 9.7 | 25.7 | 0.00 | 0.20 | 0.00 | 39 | 1007.4 |
| 20260507213021 | 11 | 321 | 11.3 | 25.7 | 0.00 | 0.20 | 0.00 | 39 | 1007.4 |
| 20260507212852 | 12 | 279 | 12.9 | 25.7 | 0.00 | 0.20 | 0.00 | 38 | 1007.3 |
| 20260507212725 | 12 | 304 | 8.0 | 22.5 | 0.00 | 0.20 | 0.00 | 39 | 1007.3 |
| 20260507212626 | 12 | 283 | 8.0 | 22.5 | 0.00 | 0.20 | 0.00 | 39 | 1007.3 |
| 20260507212531 | 11 | 304 | 8.0 | 22.5 | 0.00 | 0.20 | 0.00 | 40 | 1007.4 |
| 20260507212454 | 11 | 294 | 8.0 | 22.5 | 0.00 | 0.20 | 0.00 | 40 | 1007.4 |
| 20260507212341 | 11 | 328 | 9.7 | 22.5 | 0.00 | 0.20 | 0.00 | 40 | 1007.3 |
| 20260507212307 | 11 | 239 | 9.7 | 22.5 | 0.00 | 0.20 | 0.00 | 39 | 1007.3 |
| 20260507212146 | 11 | 299 | 12.9 | 22.5 | 0.00 | 0.20 | 0.00 | 40 | 1007.3 |
| 20260507212026 | 11 | 339 | 14.5 | 22.5 | 0.00 | 0.20 | 0.00 | 39 | 1007.2 |
| 20260507211951 | 11 | 5 | 14.5 | 29.0 | 0.00 | 0.20 | 0.00 | 39 | 1007.2 |
| 20260507211854 | 11 | 351 | 12.9 | 29.0 | 0.00 | 0.20 | 0.00 | 39 | 1007.3 |
| 20260507211816 | 12 | 327 | 8.0 | 29.0 | 0.00 | 0.20 | 0.00 | 40 | 1007.3 |
| 20260507211626 | 12 | 300 | 14.5 | 29.0 | 0.00 | 0.20 | 0.00 | 39 | 1007.3 |
| 20260507211519 | 12 | 331 | 16.1 | 29.0 | 0.00 | 0.20 | 0.00 | 40 | 1007.3 |
| 20260507211330 | 12 | 327 | 9.7 | 29.0 | 0.00 | 0.20 | 0.00 | 40 | 1007.3 |
| 20260507211249 | 12 | 285 | 12.9 | 29.0 | 0.00 | 0.20 | 0.00 | 43 | 1007.3 |
| 20260507211119 | 12 | 355 | 12.9 | 29.0 | 0.00 | 0.20 | 0.00 | 40 | 1007.2 |
| 20260507211040 | 12 | 346 | 9.7 | 27.4 | 0.00 | 0.20 | 0.00 | 41 | 1007.2 |
| 20260507210844 | 12 | 347 | 17.7 | 27.4 | 0.00 | 0.20 | 0.00 | 40 | 1007.1 |
| 20260507210804 | 12 | 355 | 19.3 | 27.4 | 0.00 | 0.20 | 0.00 | 40 | 1007.1 |
| 20260507210717 | 12 | 5 | 17.7 | 25.7 | 0.00 | 0.20 | 0.00 | 39 | 1007.1 |
| 20260507210618 | 12 | 9 | 16.1 | 22.5 | 0.00 | 0.20 | 0.00 | 41 | 1007.1 |
| 20260507210450 | 12 | 299 | 12.9 | 24.1 | 0.00 | 0.20 | 0.00 | 40 | 1007.2 |
| 20260507210231 | 11 | 325 | 12.9 | 27.4 | 0.00 | 0.20 | 0.00 | 40 | 1007.2 |
| 20260507210133 | 11 | 332 | 11.3 | 27.4 | 0.00 | 0.20 | 0.00 | 39 | 1007.2 |
| 20260507210040 | 11 | 317 | 9.7 | 27.4 | 0.00 | 0.20 | 0.00 | 38 | 1007.2 |
| 20260507205944 | 12 | 318 | 12.9 | 27.4 | 0.00 | 0.20 | 0.00 | 38 | 1007.2 |
| 20260507205839 | 12 | 312 | 16.1 | 27.4 | 0.00 | 0.30 | 0.00 | 41 | 1007.1 |
| 20260507205724 | 12 | 320 | 14.5 | 27.4 | 0.00 | 0.30 | 0.00 | 39 | 1007.1 |
| 20260507205645 | 12 | 343 | 12.9 | 27.4 | 0.00 | 0.30 | 0.00 | 39 | 1007.1 |
| 20260507205516 | 12 | 339 | 14.5 | 27.4 | 0.00 | 0.30 | 0.00 | 39 | 1007.2 |
| 20260507205430 | 12 | 236 | 14.5 | 27.4 | 0.00 | 0.30 | 0.00 | 39 | 1007.1 |
| 20260507205239 | 12 | 346 | 8.0 | 29.0 | 0.00 | 0.30 | 0.00 | 39 | 1007.0 |
| 20260507205155 | 12 | 318 | 11.3 | 29.0 | 0.00 | 0.30 | 0.00 | 40 | 1007.0 |
| 20260507205122 | 12 | 268 | 11.3 | 29.0 | 0.00 | 0.30 | 0.00 | 40 | 1007.1 |
| 20260507204923 | 12 | 303 | 14.5 | 29.0 | 0.00 | 0.30 | 0.00 | 39 | 1007.0 |
| 20260507204824 | 12 | 332 | 17.7 | 29.0 | 0.00 | 0.30 | 0.00 | 38 | 1007.0 |
| 20260507204728 | 12 | 334 | 20.9 | 29.0 | 0.00 | 0.30 | 0.00 | 40 | 1007.0 |
| 20260507204629 | 12 | 341 | 19.3 | 29.0 | 0.00 | 0.30 | 0.00 | 38 | 1007.0 |
| 20260507204439 | 12 | 339 | 19.3 | 29.0 | 0.00 | 0.30 | 0.00 | 39 | 1006.9 |
| 20260507204332 | 12 | 331 | 19.3 | 27.4 | 0.00 | 0.30 | 0.00 | 39 | 1006.9 |
| 20260507204254 | 12 | 315 | 17.7 | 27.4 | 0.00 | 0.30 | 0.00 | 39 | 1006.9 |
| 20260507204122 | 12 | 321 | 16.1 | 25.7 | 0.00 | 0.30 | 0.00 | 41 | 1006.9 |
| 20260507204037 | 12 | 317 | 16.1 | 25.7 | 0.00 | 0.30 | 0.00 | 42 | 1006.9 |
| 20260507203937 | 12 | 355 | 12.9 | 25.7 | 0.00 | 0.30 | 0.00 | 41 | 1006.9 |
| 20260507203840 | 12 | 323 | 11.3 | 24.1 | 0.00 | 0.30 | 0.00 | 40 | 1006.9 |
| 20260507203744 | 12 | 283 | 12.9 | 24.1 | 0.00 | 0.30 | 0.00 | 39 | 1006.9 |
| 20260507203638 | 12 | 317 | 14.5 | 24.1 | 0.00 | 0.30 | 0.00 | 37 | 1006.9 |
| 20260507203602 | 12 | 296 | 12.9 | 24.1 | 0.00 | 0.30 | 0.00 | 37 | 1006.9 |
| 20260507203506 | 12 | 332 | 11.3 | 24.1 | 0.00 | 0.30 | 0.00 | 39 | 1006.8 |
| 20260507203427 | 12 | 318 | 11.3 | 24.1 | 0.00 | 0.30 | 0.00 | 40 | 1006.9 |
| 20260507203233 | 12 | 319 | 14.5 | 27.4 | 0.00 | 0.30 | 0.00 | 37 | 1006.9 |
| 20260507203135 | 12 | 333 | 12.9 | 27.4 | 0.00 | 0.30 | 0.00 | 38 | 1006.9 |
| 20260507203037 | 12 | 351 | 11.3 | 27.4 | 0.00 | 0.30 | 0.00 | 39 | 1006.9 |
| 20260507203000 | 12 | 318 | 11.3 | 27.4 | 0.00 | 0.30 | 0.00 | 39 | 1006.9 |
| 20260507202922 | 12 | 313 | 11.3 | 27.4 | 0.00 | 0.30 | 0.00 | 39 | 1006.8 |
| 20260507202724 | 12 | 330 | 16.1 | 27.4 | 0.00 | 0.30 | 0.00 | 38 | 1006.8 |
| 20260507202646 | 12 | 355 | 19.3 | 27.4 | 0.00 | 0.30 | 0.00 | 38 | 1006.8 |
| 20260507202549 | 12 | 350 | 19.3 | 27.4 | 0.00 | 0.30 | 0.00 | 38 | 1006.9 |
| 20260507202448 | 12 | 340 | 17.7 | 30.6 | 0.00 | 0.30 | 0.00 | 39 | 1006.8 |
| 20260507202325 | 12 | 290 | 17.7 | 30.6 | 0.00 | 0.30 | 0.00 | 41 | 1006.8 |
| 20260507202226 | 12 | 355 | 19.3 | 30.6 | 0.00 | 0.30 | 0.00 | 39 | 1006.8 |
| 20260507202150 | 12 | 5 | 17.7 | 30.6 | 0.00 | 0.30 | 0.00 | 38 | 1006.8 |
| 20260507202033 | 12 | 355 | 16.1 | 30.6 | 0.00 | 0.30 | 0.00 | 41 | 1006.7 |
| 20260507201955 | 12 | 351 | 14.5 | 30.6 | 0.00 | 0.30 | 0.00 | 42 | 1006.7 |
| 20260507201838 | 12 | 329 | 12.9 | 30.6 | 0.00 | 0.30 | 0.00 | 38 | 1006.7 |
| 20260507201735 | 12 | 329 | 16.1 | 30.6 | 0.00 | 0.30 | 0.00 | 38 | 1006.7 |
| 20260507201656 | 12 | 300 | 16.1 | 30.6 | 0.00 | 0.30 | 0.00 | 39 | 1006.7 |
| 20260507201559 | 12 | 5 | 14.5 | 30.6 | 0.00 | 0.30 | 0.00 | 39 | 1006.7 |
| 20260507201522 | 12 | 350 | 12.9 | 30.6 | 0.00 | 0.30 | 0.00 | 40 | 1006.8 |
| 20260507201329 | 12 | 333 | 14.5 | 30.6 | 0.00 | 0.30 | 0.00 | 39 | 1006.7 |
| 20260507201241 | 12 | 35 | 16.1 | 30.6 | 0.00 | 0.30 | 0.00 | 39 | 1006.7 |
| 20260507201126 | 12 | 319 | 22.5 | 30.6 | 0.00 | 0.30 | 0.00 | 36 | 1006.8 |
| 20260507201049 | 12 | 342 | 24.1 | 30.6 | 0.00 | 0.30 | 0.00 | 38 | 1006.8 |
| 20260507200924 | 12 | 325 | 17.7 | 29.0 | 0.00 | 0.30 | 0.00 | 40 | 1006.7 |
| 20260507200829 | 12 | 9 | 19.3 | 29.0 | 0.00 | 0.30 | 0.00 | 40 | 1006.8 |
| 20260507200729 | 12 | 350 | 19.3 | 29.0 | 0.00 | 0.30 | 0.00 | 40 | 1006.8 |
| 20260507200653 | 12 | 14 | 16.1 | 29.0 | 0.00 | 0.30 | 0.00 | 40 | 1006.8 |
| 20260507200538 | 12 | 305 | 9.7 | 29.0 | 0.00 | 0.30 | 0.00 | 39 | 1006.8 |
| 20260507200502 | 12 | 320 | 12.9 | 29.0 | 0.00 | 0.30 | 0.00 | 39 | 1006.8 |
| 20260507200415 | 12 | 342 | 11.3 | 29.0 | 0.00 | 0.30 | 0.00 | 38 | 1006.8 |
| 20260507200225 | 12 | 281 | 17.7 | 29.0 | 0.00 | 0.30 | 0.00 | 38 | 1006.9 |
| 20260507200140 | 12 | 315 | 12.9 | 30.6 | 0.00 | 0.30 | 0.00 | 38 | 1006.8 |
| 20260507200043 | 12 | 325 | 8.0 | 30.6 | 0.00 | 0.30 | 0.00 | 36 | 1006.8 |
| 20260507195945 | 12 | 319 | 11.3 | 30.6 | 0.00 | 0.41 | 0.00 | 37 | 1006.9 |
| 20260507195826 | 12 | 340 | 12.9 | 30.6 | 0.00 | 0.41 | 0.00 | 38 | 1006.8 |
| 20260507195730 | 12 | 278 | 9.7 | 30.6 | 0.00 | 0.41 | 0.00 | 37 | 1007.0 |
| 20260507195657 | 12 | 296 | 8.0 | 30.6 | 0.00 | 0.41 | 0.00 | 40 | 1006.9 |
| 20260507195507 | 12 | 300 | 14.5 | 30.6 | 0.00 | 0.41 | 0.00 | 37 | 1006.9 |
| 20260507195323 | 12 | 324 | 16.1 | 27.4 | 0.00 | 0.41 | 0.00 | 37 | 1006.9 |
| 20260507195227 | 12 | 294 | 11.3 | 27.4 | 0.00 | 0.41 | 0.00 | 42 | 1006.8 |
| 20260507195149 | 12 | 263 | 6.4 | 35.4 | 0.00 | 0.41 | 0.00 | 43 | 1006.8 |
| 20260507194939 | 12 | 306 | 9.7 | 35.4 | 0.00 | 0.41 | 0.00 | 42 | 1006.8 |
| 20260507194832 | 12 | 302 | 14.5 | 35.4 | 0.00 | 0.41 | 0.00 | 38 | 1006.9 |
| 20260507194755 | 12 | 302 | 19.3 | 35.4 | 0.00 | 0.41 | 0.00 | 39 | 1006.9 |
| 20260507194641 | 12 | 324 | 16.1 | 35.4 | 0.00 | 0.41 | 0.00 | 39 | 1006.8 |
| 20260507194604 | 12 | 284 | 17.7 | 35.4 | 0.00 | 0.41 | 0.00 | 41 | 1006.8 |
| 20260507194445 | 12 | 335 | 19.3 | 35.4 | 0.00 | 0.41 | 0.00 | 41 | 1006.8 |
| 20260507194346 | 12 | 339 | 17.7 | 35.4 | 0.00 | 0.41 | 0.00 | 41 | 1006.8 |
| 20260507194309 | 12 | 5 | 17.7 | 32.2 | 0.00 | 0.41 | 0.00 | 39 | 1006.8 |
| 20260507194210 | 12 | 336 | 19.3 | 32.2 | 0.00 | 0.41 | 0.00 | 40 | 1006.8 |
| 20260507194132 | 12 | 317 | 19.3 | 32.2 | 0.00 | 0.41 | 0.00 | 40 | 1006.8 |
| 20260507193935 | 12 | 342 | 19.3 | 32.2 | 0.00 | 0.41 | 0.00 | 39 | 1006.9 |
| 20260507193838 | 12 | 346 | 22.5 | 32.2 | 0.00 | 0.41 | 0.00 | 39 | 1006.8 |
| 20260507193741 | 12 | 336 | 19.3 | 32.2 | 0.00 | 0.41 | 0.00 | 40 | 1006.9 |
| 20260507193701 | 12 | 9 | 16.1 | 29.0 | 0.00 | 0.41 | 0.00 | 40 | 1006.9 |
| 20260507193631 | 12 | 311 | 14.5 | 37.0 | 0.00 | 0.41 | 0.00 | 39 | 1006.9 |
| 20260507193316 | 12 | 331 | 14.5 | 37.0 | 0.00 | 0.41 | 0.00 | 38 | 1006.9 |
| 20260507193158 | 12 | 346 | 9.7 | 37.0 | 0.00 | 0.41 | 0.00 | 39 | 1006.9 |
| 20260507193037 | 12 | 323 | 11.3 | 37.0 | 0.00 | 0.41 | 0.00 | 38 | 1007.0 |
| 20260507192943 | 12 | 297 | 19.3 | 37.0 | 0.00 | 0.41 | 0.00 | 37 | 1007.0 |
| 20260507192905 | 12 | 331 | 17.7 | 37.0 | 0.00 | 0.41 | 0.00 | 36 | 1007.0 |
| 20260507192715 | 12 | 342 | 11.3 | 32.2 | 0.00 | 0.41 | 0.00 | 37 | 1007.1 |
| 20260507192629 | 12 | 275 | 11.3 | 32.2 | 0.00 | 0.41 | 0.00 | 37 | 1007.0 |
| 20260507192502 | 12 | 286 | 9.7 | 32.2 | 0.00 | 0.41 | 0.00 | 35 | 1007.0 |
| 20260507192345 | 13 | 281 | 9.7 | 32.2 | 0.00 | 0.41 | 0.00 | 35 | 1007.0 |
| 20260507192226 | 13 | 293 | 12.9 | 32.2 | 0.00 | 0.41 | 0.00 | 37 | 1007.0 |
| 20260507192149 | 13 | 217 | 12.9 | 32.2 | 0.00 | 0.41 | 0.00 | 39 | 1007.0 |
| 20260507192114 | 13 | 325 | 16.1 | 32.2 | 0.00 | 0.41 | 0.00 | 38 | 1007.0 |
| 20260507191925 | 13 | 297 | 16.1 | 25.7 | 0.00 | 0.41 | 0.00 | 38 | 1007.0 |
| 20260507191841 | 13 | 309 | 12.9 | 24.1 | 0.00 | 0.41 | 0.00 | 38 | 1007.0 |
| 20260507191711 | 13 | 327 | 9.7 | 22.5 | 0.00 | 0.41 | 0.00 | 40 | 1006.9 |
| 20260507191632 | 13 | 221 | 14.5 | 22.5 | 0.00 | 0.41 | 0.00 | 39 | 1006.9 |
| 20260507191516 | 13 | 5 | 11.3 | 24.1 | 0.00 | 0.41 | 0.00 | 40 | 1007.0 |
| 20260507191441 | 13 | 324 | 9.7 | 22.5 | 0.00 | 0.41 | 0.00 | 37 | 1007.0 |
| 20260507191241 | 13 | 279 | 11.3 | 22.5 | 0.00 | 0.41 | 0.00 | 37 | 1007.0 |
| 20260507191133 | 13 | 313 | 14.5 | 27.4 | 0.00 | 0.41 | 0.00 | 36 | 1007.1 |
| 20260507191056 | 13 | 273 | 14.5 | 27.4 | 0.00 | 0.41 | 0.00 | 39 | 1007.1 |
| 20260507191000 | 13 | 198 | 11.3 | 27.4 | 0.00 | 0.41 | 0.00 | 39 | 1007.0 |
| 20260507190922 | 13 | 313 | 11.3 | 27.4 | 0.00 | 0.41 | 0.00 | 37 | 1007.0 |
| 20260507190724 | 13 | 325 | 11.3 | 27.4 | 0.00 | 0.41 | 0.00 | 37 | 1006.9 |
| 20260507190627 | 13 | 327 | 9.7 | 27.4 | 0.00 | 0.41 | 0.00 | 37 | 1007.0 |
| 20260507190530 | 13 | 335 | 11.3 | 38.6 | 0.00 | 0.41 | 0.00 | 40 | 1006.9 |
| 20260507190436 | 13 | 299 | 14.5 | 38.6 | 0.00 | 0.41 | 0.00 | 40 | 1007.0 |
| 20260507190256 | 13 | 325 | 11.3 | 38.6 | 0.00 | 0.41 | 0.00 | 41 | 1007.1 |
| 20260507190036 | 13 | 326 | 9.7 | 38.6 | 0.00 | 0.41 | 0.00 | 38 | 1007.1 |
| 20260507190000 | 13 | 355 | 12.9 | 38.6 | 0.00 | 0.41 | 0.00 | 38 | 1007.1 |
| 20260507185824 | 13 | 332 | 20.9 | 38.6 | 0.00 | 0.51 | 0.00 | 40 | 1007.1 |
| 20260507185739 | 13 | 350 | 17.7 | 38.6 | 0.00 | 0.51 | 0.00 | 40 | 1006.9 |
| 20260507185517 | 12 | 183 | 9.7 | 20.9 | 0.00 | 0.51 | 0.00 | 39 | 1006.9 |
| 20260507185440 | 12 | 322 | 9.7 | 22.5 | 0.00 | 0.51 | 0.00 | 38 | 1007.0 |
| 20260507185305 | 12 | 244 | 9.7 | 27.4 | 0.00 | 0.51 | 0.00 | 35 | 1007.0 |
| 20260507185235 | 12 | 304 | 12.9 | 27.4 | 0.00 | 0.51 | 0.00 | 35 | 1007.1 |
| 20260507185108 | 12 | 289 | 11.3 | 29.0 | 0.00 | 0.51 | 0.00 | 38 | 1007.1 |
| 20260507185031 | 12 | 292 | 9.7 | 29.0 | 0.00 | 0.51 | 0.00 | 37 | 1007.0 |
| 20260507184834 | 12 | 302 | 8.0 | 29.0 | 0.00 | 0.51 | 0.00 | 36 | 1007.0 |
| 20260507184756 | 12 | 313 | 9.7 | 29.0 | 0.00 | 0.51 | 0.00 | 37 | 1007.0 |
| 20260507184638 | 12 | 346 | 17.7 | 29.0 | 0.00 | 0.51 | 0.00 | 36 | 1007.1 |
| 20260507184601 | 12 | 288 | 17.7 | 29.0 | 0.00 | 0.51 | 0.00 | 36 | 1007.1 |
| 20260507184515 | 12 | 318 | 14.5 | 29.0 | 0.00 | 0.51 | 0.00 | 37 | 1007.2 |
| 20260507184326 | 12 | 294 | 6.4 | 22.5 | 0.00 | 0.51 | 0.00 | 43 | 1007.0 |
| 20260507184241 | 12 | 315 | 8.0 | 22.5 | 0.00 | 0.51 | 0.00 | 39 | 1007.1 |
| 20260507184033 | 12 | 323 | 11.3 | 22.5 | 0.00 | 0.51 | 0.00 | 39 | 1007.1 |
| 20260507183948 | 12 | 337 | 12.9 | 22.5 | 0.00 | 0.51 | 0.00 | 39 | 1007.1 |
| 20260507183817 | 12 | 186 | 11.3 | 22.5 | 0.00 | 0.51 | 0.00 | 37 | 1007.1 |
| 20260507183738 | 12 | 327 | 9.7 | 20.9 | 0.00 | 0.51 | 0.00 | 38 | 1007.1 |
| 20260507183542 | 12 | 217 | 8.0 | 22.5 | 0.00 | 0.51 | 0.00 | 37 | 1007.2 |
| 20260507183442 | 12 | 233 | 8.0 | 22.5 | 0.00 | 0.51 | 0.00 | 39 | 1007.2 |
| 20260507183325 | 12 | 178 | 12.9 | 22.5 | 0.00 | 0.51 | 0.00 | 37 | 1007.2 |
| 20260507183236 | 12 | 297 | 12.9 | 22.5 | 0.00 | 0.51 | 0.00 | 37 | 1007.2 |
| 20260507183140 | 12 | 316 | 11.3 | 22.5 | 0.00 | 0.51 | 0.00 | 36 | 1007.1 |
| 20260507183026 | 12 | 309 | 9.7 | 22.5 | 0.00 | 0.51 | 0.00 | 37 | 1007.1 |
| 20260507182948 | 12 | 255 | 9.7 | 22.5 | 0.00 | 0.51 | 0.00 | 38 | 1007.1 |
| 20260507182818 | 12 | 288 | 8.0 | 22.5 | 0.00 | 0.51 | 0.00 | 38 | 1007.1 |
| 20260507182740 | 12 | 283 | 8.0 | 22.5 | 0.00 | 0.51 | 0.00 | 37 | 1007.1 |
| 20260507182543 | 12 | 289 | 8.0 | 20.9 | 0.00 | 0.51 | 0.00 | 38 | 1007.2 |
| 20260507182505 | 12 | 327 | 9.7 | 20.9 | 0.00 | 0.51 | 0.00 | 37 | 1007.3 |
| 20260507182408 | 12 | 271 | 8.0 | 20.9 | 0.00 | 0.51 | 0.00 | 39 | 1007.3 |
| 20260507182330 | 12 | 279 | 8.0 | 20.9 | 0.00 | 0.51 | 0.00 | 39 | 1007.2 |
| 20260507182134 | 12 | 309 | 12.9 | 22.5 | 0.00 | 0.51 | 0.00 | 38 | 1007.2 |
| 20260507182036 | 12 | 315 | 9.7 | 29.0 | 0.00 | 0.51 | 0.00 | 39 | 1007.2 |
| 20260507181944 | 12 | 271 | 9.7 | 29.0 | 0.00 | 0.51 | 0.00 | 42 | 1007.1 |
| 20260507181824 | 12 | 293 | 11.3 | 29.0 | 0.00 | 0.51 | 0.00 | 40 | 1007.1 |
| 20260507181627 | 12 | 255 | 9.7 | 29.0 | 0.00 | 0.51 | 0.00 | 38 | 1007.2 |
| 20260507181530 | 12 | 188 | 8.0 | 29.0 | 0.00 | 0.51 | 0.00 | 42 | 1007.2 |
| 20260507181431 | 12 | 256 | 11.3 | 29.0 | 0.00 | 0.51 | 0.00 | 39 | 1007.3 |
| 20260507181332 | 12 | 272 | 12.9 | 29.0 | 0.00 | 0.51 | 0.00 | 38 | 1007.3 |
| 20260507181136 | 12 | 279 | 14.5 | 29.0 | 0.00 | 0.51 | 0.00 | 37 | 1007.2 |
| 20260507181038 | 12 | 213 | 9.7 | 24.1 | 0.00 | 0.51 | 0.00 | 40 | 1007.3 |
| 20260507180925 | 12 | 214 | 9.7 | 24.1 | 0.00 | 0.51 | 0.00 | 37 | 1007.3 |
| 20260507180848 | 12 | 301 | 11.3 | 24.1 | 0.00 | 0.51 | 0.00 | 38 | 1007.3 |
| 20260507180748 | 12 | 277 | 12.9 | 24.1 | 0.00 | 0.51 | 0.00 | 39 | 1007.4 |
| 20260507180632 | 12 | 286 | 14.5 | 24.1 | 0.00 | 0.51 | 0.00 | 39 | 1007.5 |
| 20260507180554 | 12 | 28 | 14.5 | 24.1 | 0.00 | 0.51 | 0.00 | 40 | 1007.5 |
| 20260507180437 | 12 | 317 | 14.5 | 24.1 | 0.00 | 0.51 | 0.00 | 40 | 1007.4 |
| 20260507180400 | 12 | 315 | 12.9 | 24.1 | 0.00 | 0.51 | 0.00 | 40 | 1007.4 |
| 20260507180302 | 12 | 327 | 12.9 | 22.5 | 0.00 | 0.51 | 0.00 | 39 | 1007.4 |
| 20260507180206 | 12 | 241 | 11.3 | 24.1 | 0.00 | 0.51 | 0.00 | 39 | 1007.4 |
| 20260507180128 | 12 | 207 | 8.0 | 24.1 | 0.00 | 0.51 | 0.00 | 39 | 1007.4 |
| 20260507175932 | 12 | 355 | 6.4 | 24.1 | 0.00 | 0.66 | 0.00 | 40 | 1007.4 |
| 20260507175838 | 12 | 187 | 9.7 | 25.7 | 0.00 | 0.66 | 0.00 | 39 | 1007.4 |
| 20260507175721 | 12 | 264 | 12.9 | 25.7 | 0.00 | 0.66 | 0.00 | 39 | 1007.5 |
| 20260507175645 | 12 | 265 | 12.9 | 25.7 | 0.00 | 0.66 | 0.00 | 40 | 1007.5 |
| 20260507175606 | 12 | 333 | 12.9 | 25.7 | 0.00 | 0.66 | 0.00 | 38 | 1007.3 |
| 20260507175523 | 12 | 307 | 14.5 | 25.7 | 0.00 | 0.66 | 0.00 | 38 | 1007.4 |
| 20260507175444 | 12 | 315 | 12.9 | 25.7 | 0.00 | 0.66 | 0.00 | 39 | 1007.4 |
| 20260507175315 | 12 | 298 | 14.5 | 25.7 | 0.00 | 0.66 | 0.00 | 39 | 1007.5 |
| 20260507175231 | 12 | 243 | 16.1 | 25.7 | 0.00 | 0.66 | 0.00 | 38 | 1007.4 |
| 20260507175041 | 12 | 341 | 11.3 | 24.1 | 0.00 | 0.66 | 0.00 | 40 | 1007.4 |
| 20260507174956 | 12 | 119 | 9.7 | 24.1 | 0.00 | 0.66 | 0.00 | 39 | 1007.4 |
| 20260507174830 | 12 | 286 | 9.7 | 24.1 | 0.00 | 0.66 | 0.00 | 39 | 1007.4 |
| 20260507174730 | 12 | 273 | 12.9 | 24.1 | 0.00 | 0.66 | 0.00 | 39 | 1007.3 |
| 20260507174601 | 12 | 336 | 12.9 | 19.3 | 0.00 | 0.66 | 0.00 | 41 | 1007.4 |
| 20260507174434 | 12 | 288 | 11.3 | 25.7 | 0.00 | 0.66 | 0.00 | 39 | 1007.4 |
| 20260507174356 | 12 | 320 | 11.3 | 25.7 | 0.00 | 0.66 | 0.00 | 41 | 1007.4 |
| 20260507174300 | 12 | 256 | 11.3 | 25.7 | 0.00 | 0.66 | 0.00 | 39 | 1007.5 |
| 20260507174220 | 12 | 238 | 11.3 | 25.7 | 0.00 | 0.66 | 0.00 | 42 | 1007.5 |
| 20260507174051 | 12 | 196 | 11.3 | 25.7 | 0.00 | 0.66 | 0.00 | 38 | 1007.4 |
| 20260507173915 | 12 | 221 | 9.7 | 25.7 | 0.00 | 0.66 | 0.00 | 40 | 1007.3 |
| 20260507173829 | 12 | 157 | 4.8 | 25.7 | 0.00 | 0.66 | 0.00 | 39 | 1007.4 |
| 20260507173756 | 12 | 292 | 8.0 | 25.7 | 0.00 | 0.66 | 0.00 | 39 | 1007.4 |
| 20260507173717 | 12 | 318 | 6.4 | 25.7 | 0.00 | 0.66 | 0.00 | 40 | 1007.4 |
| 20260507173541 | 12 | 286 | 6.4 | 25.7 | 0.00 | 0.66 | 0.00 | 42 | 1007.5 |
| 20260507173444 | 12 | 188 | 9.7 | 25.7 | 0.00 | 0.66 | 0.00 | 39 | 1007.5 |
| 20260507173349 | 12 | 267 | 11.3 | 25.7 | 0.00 | 0.66 | 0.00 | 42 | 1007.5 |
| 20260507173230 | 12 | 234 | 12.9 | 25.7 | 0.00 | 0.66 | 0.00 | 42 | 1007.5 |
| 20260507173131 | 12 | 263 | 11.3 | 25.7 | 0.00 | 0.66 | 0.00 | 41 | 1007.4 |
| 20260507173054 | 12 | 273 | 8.0 | 25.7 | 0.00 | 0.66 | 0.00 | 40 | 1007.4 |
| 20260507173016 | 12 | 326 | 6.4 | 25.7 | 0.00 | 0.66 | 0.00 | 40 | 1007.5 |
| 20260507172840 | 12 | 247 | 11.3 | 25.7 | 0.00 | 0.66 | 0.00 | 38 | 1007.5 |
| 20260507172725 | 12 | 220 | 9.7 | 25.7 | 0.00 | 0.66 | 0.00 | 38 | 1007.5 |
| 20260507172628 | 12 | 9 | 8.0 | 25.7 | 0.00 | 0.66 | 0.00 | 42 | 1007.5 |
| 20260507172550 | 12 | 310 | 8.0 | 25.7 | 0.00 | 0.66 | 0.00 | 40 | 1007.5 |
| 20260507172512 | 12 | 190 | 9.7 | 25.7 | 0.00 | 0.66 | 0.00 | 42 | 1007.6 |
| 20260507172415 | 12 | 283 | 12.9 | 25.7 | 0.00 | 0.66 | 0.00 | 39 | 1007.6 |
| 20260507172316 | 12 | 282 | 11.3 | 22.5 | 0.00 | 0.66 | 0.00 | 41 | 1007.6 |
| 20260507172217 | 12 | 310 | 8.0 | 22.5 | 0.00 | 0.66 | 0.00 | 44 | 1007.5 |
| 20260507172121 | 12 | 292 | 8.0 | 22.5 | 0.00 | 0.66 | 0.00 | 43 | 1007.5 |
| 20260507172044 | 12 | 332 | 6.4 | 22.5 | 0.00 | 0.66 | 0.00 | 40 | 1007.5 |
| 20260507171913 | 12 | 205 | 8.0 | 22.5 | 0.00 | 0.66 | 0.00 | 41 | 1007.4 |
| 20260507171828 | 12 | 234 | 9.7 | 22.5 | 0.00 | 0.66 | 0.00 | 42 | 1007.5 |
| 20260507171641 | 12 | 321 | 11.3 | 22.5 | 0.00 | 0.66 | 0.00 | 40 | 1007.5 |
| 20260507171605 | 12 | 253 | 9.7 | 22.5 | 0.00 | 0.66 | 0.00 | 42 | 1007.5 |
| 20260507171439 | 12 | 235 | 8.0 | 20.9 | 0.00 | 0.66 | 0.00 | 42 | 1007.5 |
| 20260507171324 | 12 | 292 | 8.0 | 29.0 | 0.00 | 0.66 | 0.00 | 41 | 1007.6 |
| 20260507171245 | 12 | 242 | 8.0 | 29.0 | 0.00 | 0.66 | 0.00 | 41 | 1007.6 |
| 20260507171117 | 12 | 248 | 4.8 | 29.0 | 0.00 | 0.66 | 0.00 | 42 | 1007.5 |
| 20260507171031 | 12 | 171 | 4.8 | 29.0 | 0.00 | 0.66 | 0.00 | 44 | 1007.6 |
| 20260507170841 | 12 | 244 | 9.7 | 29.0 | 0.00 | 0.66 | 0.00 | 41 | 1007.6 |
| 20260507170756 | 12 | 215 | 11.3 | 29.0 | 0.00 | 0.66 | 0.00 | 41 | 1007.6 |
| 20260507170605 | 12 | 269 | 19.3 | 29.0 | 0.00 | 0.66 | 0.00 | 41 | 1007.6 |
| 20260507170531 | 12 | 200 | 17.7 | 30.6 | 0.00 | 0.66 | 0.00 | 40 | 1007.6 |
| 20260507170333 | 12 | 263 | 12.9 | 29.0 | 0.00 | 0.66 | 0.00 | 43 | 1007.7 |
| 20260507170255 | 12 | 188 | 9.7 | 29.0 | 0.00 | 0.66 | 0.00 | 42 | 1007.7 |
| 20260507170138 | 12 | 226 | 8.0 | 29.0 | 0.00 | 0.66 | 0.00 | 43 | 1007.7 |
| 20260507170059 | 12 | 242 | 8.0 | 29.0 | 0.00 | 0.66 | 0.00 | 39 | 1007.7 |
| 20260507170013 | 12 | 215 | 12.9 | 29.0 | 0.00 | 0.66 | 0.00 | 40 | 1007.7 |
| 20260507165800 | 12 | 209 | 9.7 | 29.0 | 0.00 | 0.86 | 0.00 | 44 | 1007.7 |
| 20260507165722 | 12 | 189 | 8.0 | 19.3 | 0.00 | 0.86 | 0.00 | 44 | 1007.7 |
| 20260507165552 | 12 | 204 | 6.4 | 19.3 | 0.00 | 0.86 | 0.00 | 45 | 1007.6 |
| 20260507165426 | 12 | 136 | 6.4 | 17.7 | 0.00 | 0.86 | 0.00 | 42 | 1007.6 |
| 20260507165353 | 12 | 213 | 6.4 | 17.7 | 0.00 | 0.86 | 0.00 | 42 | 1007.6 |
| 20260507165245 | 12 | 214 | 8.0 | 16.1 | 0.00 | 0.86 | 0.00 | 43 | 1007.8 |
| 20260507165056 | 12 | 226 | 8.0 | 16.1 | 0.00 | 0.86 | 0.00 | 45 | 1007.7 |
| 20260507164928 | 12 | 179 | 9.7 | 24.1 | 0.00 | 0.86 | 0.00 | 41 | 1007.8 |
| 20260507164831 | 12 | 206 | 8.0 | 24.1 | 0.00 | 0.86 | 0.00 | 41 | 1007.9 |
| 20260507164737 | 12 | 148 | 6.4 | 24.1 | 0.00 | 0.86 | 0.00 | 43 | 1007.8 |
| 20260507164631 | 12 | 207 | 8.0 | 24.1 | 0.00 | 0.86 | 0.00 | 43 | 1007.9 |
| 20260507164551 | 12 | 268 | 9.7 | 24.1 | 0.00 | 0.86 | 0.00 | 44 | 1008.0 |
| 20260507164454 | 12 | 186 | 6.4 | 24.1 | 0.00 | 0.86 | 0.00 | 44 | 1008.0 |
| 20260507164340 | 11 | 178 | 8.0 | 24.1 | 0.00 | 0.86 | 0.00 | 44 | 1007.9 |
| 20260507164244 | 11 | 213 | 12.9 | 24.1 | 0.00 | 0.86 | 0.00 | 43 | 1007.9 |
| 20260507164137 | 11 | 314 | 12.9 | 24.1 | 0.00 | 0.86 | 0.00 | 44 | 1008.0 |
| 20260507164101 | 11 | 327 | 9.7 | 24.1 | 0.00 | 0.86 | 0.00 | 44 | 1008.0 |
| 20260507164006 | 11 | 248 | 6.4 | 22.5 | 0.00 | 0.86 | 0.00 | 46 | 1007.9 |
| 20260507163929 | 11 | 299 | 4.8 | 22.5 | 0.00 | 0.86 | 0.00 | 46 | 1007.9 |
| 20260507163732 | 11 | 348 | 3.2 | 22.5 | 0.00 | 0.86 | 0.00 | 44 | 1008.0 |
| 20260507163633 | 11 | 312 | 4.8 | 22.5 | 0.00 | 0.86 | 0.00 | 46 | 1008.0 |
| 20260507163540 | 11 | 311 | 8.0 | 22.5 | 0.00 | 0.86 | 0.00 | 43 | 1008.0 |
| 20260507163444 | 11 | 302 | 9.7 | 22.5 | 0.00 | 0.86 | 0.00 | 44 | 1008.0 |
| 20260507163358 | 11 | 319 | 8.0 | 20.9 | 0.00 | 0.86 | 0.00 | 43 | 1008.2 |
| 20260507163207 | 11 | 293 | 4.8 | 25.7 | 0.00 | 0.86 | 0.00 | 45 | 1008.1 |
| 20260507163129 | 11 | 254 | 4.8 | 25.7 | 0.00 | 0.86 | 0.00 | 45 | 1008.1 |
| 20260507162932 | 11 | 302 | 11.3 | 25.7 | 0.00 | 0.86 | 0.00 | 42 | 1008.2 |
| 20260507162854 | 11 | 297 | 11.3 | 25.7 | 0.00 | 0.86 | 0.00 | 41 | 1008.2 |
| 20260507162737 | 11 | 288 | 12.9 | 25.7 | 0.00 | 0.86 | 0.00 | 41 | 1008.1 |
| 20260507162659 | 11 | 331 | 11.3 | 25.7 | 0.00 | 0.86 | 0.00 | 42 | 1008.1 |
| 20260507162613 | 11 | 331 | 11.3 | 25.7 | 0.00 | 0.86 | 0.00 | 41 | 1008.2 |
| 20260507162438 | 11 | 287 | 16.1 | 25.7 | 0.00 | 0.86 | 0.00 | 44 | 1008.3 |
| 20260507162402 | 11 | 311 | 14.5 | 24.1 | 0.00 | 0.86 | 0.00 | 44 | 1008.3 |
| 20260507162317 | 11 | 290 | 14.5 | 24.1 | 0.00 | 0.86 | 0.00 | 44 | 1008.4 |
| 20260507162128 | 11 | 168 | 11.3 | 22.5 | 0.00 | 0.86 | 0.00 | 43 | 1008.2 |
| 20260507162023 | 11 | 241 | 16.1 | 22.5 | 0.00 | 0.86 | 0.00 | 41 | 1008.2 |
| 20260507161946 | 11 | 164 | 12.9 | 22.5 | 0.00 | 0.86 | 0.00 | 41 | 1008.2 |
| 20260507161830 | 11 | 216 | 8.0 | 22.5 | 0.00 | 0.86 | 0.00 | 45 | 1008.3 |
| 20260507161740 | 11 | 215 | 8.0 | 22.5 | 0.00 | 0.86 | 0.00 | 45 | 1008.3 |
| 20260507161622 | 11 | 182 | 6.4 | 22.5 | 0.00 | 0.86 | 0.00 | 46 | 1008.3 |
| 20260507161547 | 11 | 232 | 8.0 | 22.5 | 0.00 | 0.86 | 0.00 | 44 | 1008.3 |
| 20260507161417 | 11 | 307 | 8.0 | 22.5 | 0.00 | 0.86 | 0.00 | 44 | 1008.4 |
| 20260507161311 | 11 | 264 | 8.0 | 25.7 | 0.00 | 0.86 | 0.00 | 44 | 1008.4 |
| 20260507161130 | 11 | 327 | 12.9 | 25.7 | 0.00 | 0.86 | 0.00 | 43 | 1008.4 |
| 20260507161045 | 11 | 341 | 11.3 | 30.6 | 0.00 | 0.86 | 0.00 | 45 | 1008.4 |
| 20260507160916 | 11 | 229 | 9.7 | 30.6 | 0.00 | 0.86 | 0.00 | 41 | 1008.3 |
| 20260507160837 | 11 | 284 | 11.3 | 30.6 | 0.00 | 0.86 | 0.00 | 41 | 1008.4 |
| 20260507160640 | 11 | 263 | 9.7 | 30.6 | 0.00 | 0.86 | 0.00 | 43 | 1008.4 |
| 20260507160544 | 11 | 335 | 12.9 | 30.6 | 0.00 | 0.86 | 0.00 | 43 | 1008.4 |
| 20260507160429 | 11 | 250 | 11.3 | 30.6 | 0.00 | 0.86 | 0.00 | 45 | 1008.5 |
| 20260507160353 | 11 | 329 | 12.9 | 30.6 | 0.00 | 0.86 | 0.00 | 43 | 1008.5 |
| 20260507160308 | 11 | 289 | 14.5 | 30.6 | 0.00 | 0.86 | 0.00 | 43 | 1008.5 |
| 20260507160118 | 11 | 325 | 9.7 | 27.4 | 0.00 | 0.86 | 0.00 | 44 | 1008.5 |
| 20260507160040 | 11 | 199 | 11.3 | 27.4 | 0.00 | 0.86 | 0.00 | 44 | 1008.5 |
| 20260507155843 | 11 | 300 | 12.9 | 27.4 | 0.00 | 1.14 | 0.00 | 42 | 1008.5 |
| 20260507155804 | 11 | 286 | 14.5 | 27.4 | 0.00 | 1.14 | 0.00 | 43 | 1008.6 |
| 20260507155707 | 11 | 332 | 9.7 | 27.4 | 0.00 | 1.14 | 0.00 | 46 | 1008.7 |
| 20260507155629 | 11 | 298 | 6.4 | 22.5 | 0.00 | 1.14 | 0.00 | 45 | 1008.7 |
| 20260507155434 | 11 | 240 | 3.2 | 17.7 | 0.00 | 1.14 | 0.00 | 45 | 1008.7 |
| 20260507155340 | 11 | 163 | 1.6 | 25.7 | 0.00 | 1.14 | 0.00 | 46 | 1008.8 |
| 20260507155224 | 11 | 225 | 4.8 | 25.7 | 0.00 | 1.14 | 0.00 | 49 | 1008.7 |
| 20260507155147 | 11 | 292 | 4.8 | 25.7 | 0.00 | 1.14 | 0.00 | 47 | 1008.8 |
| 20260507154935 | 11 | 244 | 9.7 | 25.7 | 0.00 | 1.14 | 0.00 | 43 | 1008.9 |
| 20260507154847 | 11 | 219 | 9.7 | 25.7 | 0.00 | 1.14 | 0.00 | 46 | 1008.9 |
| 20260507154718 | 11 | 196 | 6.4 | 25.7 | 0.00 | 1.14 | 0.00 | 44 | 1008.9 |
| 20260507154619 | 11 | 51 | 11.3 | 25.7 | 0.00 | 1.14 | 0.00 | 44 | 1008.9 |
| 20260507154523 | 11 | 162 | 14.5 | 25.7 | 0.00 | 1.14 | 0.00 | 43 | 1008.8 |
| 20260507154445 | 11 | 190 | 11.3 | 19.3 | 0.00 | 1.14 | 0.00 | 45 | 1008.9 |
| 20260507154235 | 11 | 220 | 9.7 | 22.5 | 0.00 | 1.14 | 0.00 | 46 | 1008.9 |
| 20260507154148 | 11 | 293 | 9.7 | 22.5 | 0.00 | 1.14 | 0.00 | 46 | 1008.9 |
| 20260507154054 | 11 | 254 | 11.3 | 22.5 | 0.00 | 1.14 | 0.00 | 48 | 1008.9 |
| 20260507154016 | 11 | 155 | 9.7 | 22.5 | 0.00 | 1.14 | 0.00 | 46 | 1008.8 |
| 20260507153931 | 11 | 283 | 9.7 | 22.5 | 0.00 | 1.14 | 0.00 | 46 | 1008.9 |
| 20260507153749 | 10 | 307 | 8.0 | 19.3 | 0.00 | 1.14 | 0.00 | 45 | 1009.0 |
| 20260507153650 | 10 | 306 | 6.4 | 19.3 | 0.00 | 1.14 | 0.00 | 44 | 1009.0 |
| 20260507153534 | 11 | 284 | 8.0 | 19.3 | 0.00 | 1.14 | 0.00 | 45 | 1009.0 |
| 20260507153456 | 11 | 279 | 8.0 | 19.3 | 0.00 | 1.14 | 0.00 | 44 | 1009.0 |
| 20260507153237 | 11 | 313 | 9.7 | 19.3 | 0.00 | 1.14 | 0.00 | 45 | 1009.0 |
| 20260507153159 | 11 | 189 | 8.0 | 17.7 | 0.00 | 1.14 | 0.00 | 45 | 1009.0 |
| 20260507153043 | 11 | 286 | 8.0 | 17.7 | 0.00 | 1.14 | 0.00 | 47 | 1008.9 |
| 20260507152950 | 11 | 281 | 8.0 | 17.7 | 0.00 | 1.14 | 0.00 | 49 | 1008.9 |
| 20260507152913 | 11 | 308 | 6.4 | 16.1 | 0.00 | 1.14 | 0.00 | 47 | 1008.9 |
| 20260507152815 | 11 | 341 | 8.0 | 14.5 | 0.00 | 1.14 | 0.00 | 45 | 1008.9 |
| 20260507152737 | 11 | 327 | 8.0 | 14.5 | 0.00 | 1.14 | 0.00 | 45 | 1008.9 |
| 20260507152618 | 11 | 333 | 6.4 | 19.3 | 0.00 | 1.14 | 0.00 | 47 | 1009.0 |
| 20260507152534 | 11 | 325 | 8.0 | 19.3 | 0.00 | 1.14 | 0.00 | 48 | 1009.0 |
| 20260507152404 | 10 | 174 | 6.4 | 27.4 | 0.00 | 1.14 | 0.00 | 49 | 1009.0 |
| 20260507152327 | 10 | 254 | 4.8 | 27.4 | 0.00 | 1.14 | 0.00 | 49 | 1008.9 |
| 20260507152129 | 10 | 284 | 3.2 | 27.4 | 0.00 | 1.14 | 0.00 | 50 | 1008.8 |
| 20260507152051 | 10 | 313 | 3.2 | 27.4 | 0.00 | 1.14 | 0.00 | 50 | 1008.8 |
| 20260507151955 | 10 | 61 | 6.4 | 27.4 | 0.00 | 1.14 | 0.00 | 49 | 1008.9 |
| 20260507151855 | 10 | 328 | 8.0 | 27.4 | 0.00 | 1.14 | 0.00 | 47 | 1008.9 |
| 20260507151743 | 10 | 355 | 9.7 | 27.4 | 0.00 | 1.14 | 0.00 | 47 | 1008.9 |
| 20260507151655 | 10 | 264 | 14.5 | 27.4 | 0.00 | 1.14 | 0.00 | 47 | 1008.8 |
| 20260507151555 | 10 | 225 | 12.9 | 24.1 | 0.00 | 1.14 | 0.00 | 46 | 1008.9 |
| 20260507151458 | 10 | 306 | 9.7 | 24.1 | 0.00 | 1.14 | 0.00 | 48 | 1008.9 |
| 20260507151400 | 10 | 338 | 8.0 | 24.1 | 0.00 | 1.14 | 0.00 | 48 | 1008.9 |
| 20260507151302 | 10 | 244 | 8.0 | 24.1 | 0.00 | 1.14 | 0.00 | 50 | 1008.9 |
| 20260507151225 | 10 | 299 | 6.4 | 24.1 | 0.00 | 1.14 | 0.00 | 50 | 1008.9 |
| 20260507151027 | 10 | 296 | 11.3 | 24.1 | 0.00 | 1.14 | 0.00 | 48 | 1008.9 |
| 20260507150949 | 10 | 194 | 12.9 | 24.1 | 0.00 | 1.14 | 0.00 | 48 | 1008.9 |
| 20260507150854 | 10 | 228 | 14.5 | 24.1 | 0.00 | 1.14 | 0.00 | 47 | 1008.8 |
| 20260507150816 | 10 | 178 | 8.0 | 19.3 | 0.00 | 1.14 | 0.00 | 49 | 1008.9 |
| 20260507150651 | 10 | 336 | 8.0 | 19.3 | 0.00 | 1.14 | 0.00 | 48 | 1008.9 |
| 20260507150543 | 10 | 235 | 9.7 | 19.3 | 0.00 | 1.14 | 0.00 | 49 | 1009.0 |
| 20260507150352 | 10 | 281 | 6.4 | 19.3 | 0.00 | 1.14 | 0.00 | 50 | 1008.8 |
| 20260507150251 | 10 | 207 | 6.4 | 19.3 | 0.00 | 1.14 | 0.00 | 50 | 1008.8 |
| 20260507150122 | 10 | 189 | 12.9 | 30.6 | 0.00 | 1.14 | 0.00 | 47 | 1008.9 |
| 20260507150036 | 10 | 206 | 12.9 | 30.6 | 0.00 | 1.14 | 0.00 | 48 | 1008.9 |
| 20260507145906 | 10 | 171 | 11.3 | 30.6 | 0.00 | 1.35 | 0.00 | 48 | 1008.9 |
| 20260507145829 | 10 | 193 | 11.3 | 30.6 | 0.00 | 1.35 | 0.00 | 48 | 1008.9 |
| 20260507145631 | 10 | 167 | 11.3 | 30.6 | 0.00 | 1.35 | 0.00 | 47 | 1008.9 |
| 20260507145553 | 10 | 238 | 11.3 | 30.6 | 0.00 | 1.35 | 0.00 | 47 | 1008.9 |
| 20260507145456 | 10 | 226 | 14.5 | 30.6 | 0.00 | 1.35 | 0.00 | 47 | 1008.9 |
| 20260507145341 | 10 | 188 | 16.1 | 30.6 | 0.00 | 1.35 | 0.00 | 47 | 1008.9 |
| 20260507145223 | 10 | 214 | 11.3 | 20.9 | 0.00 | 1.35 | 0.00 | 47 | 1008.9 |
| 20260507145147 | 10 | 225 | 9.7 | 20.9 | 0.00 | 1.35 | 0.00 | 47 | 1008.9 |
| 20260507145101 | 10 | 180 | 8.0 | 20.9 | 0.00 | 1.35 | 0.00 | 47 | 1008.9 |
| 20260507144930 | 10 | 235 | 9.7 | 20.9 | 0.00 | 1.35 | 0.00 | 49 | 1009.1 |
| 20260507144832 | 10 | 277 | 11.3 | 20.9 | 0.00 | 1.35 | 0.00 | 49 | 1009.0 |
| 20260507144636 | 10 | 213 | 8.0 | 24.1 | 0.00 | 1.35 | 0.00 | 50 | 1008.9 |
| 20260507144538 | 10 | 238 | 8.0 | 24.1 | 0.00 | 1.35 | 0.00 | 50 | 1008.9 |
| 20260507144440 | 10 | 300 | 11.3 | 24.1 | 0.00 | 1.35 | 0.00 | 50 | 1008.8 |
| 20260507144401 | 10 | 215 | 12.9 | 24.1 | 0.00 | 1.35 | 0.00 | 50 | 1008.8 |
| 20260507144236 | 10 | 333 | 9.7 | 16.1 | 0.00 | 1.35 | 0.00 | 48 | 1009.0 |
| 20260507144130 | 10 | 290 | 8.0 | 16.1 | 0.00 | 1.35 | 0.00 | 49 | 1008.9 |
| 20260507143940 | 10 | 220 | 4.8 | 17.7 | 0.00 | 1.35 | 0.00 | 49 | 1009.0 |
| 20260507143834 | 9 | 309 | 6.4 | 17.7 | 0.00 | 1.35 | 0.00 | 49 | 1009.0 |
| 20260507143644 | 9 | 293 | 9.7 | 22.5 | 0.00 | 1.35 | 0.00 | 49 | 1009.0 |
| 20260507143559 | 9 | 303 | 8.0 | 22.5 | 0.00 | 1.35 | 0.00 | 50 | 1009.0 |
| 20260507143429 | 9 | 271 | 6.4 | 22.5 | 0.00 | 1.35 | 0.00 | 48 | 1009.0 |
| 20260507143330 | 9 | 314 | 8.0 | 22.5 | 0.00 | 1.35 | 0.00 | 48 | 1009.0 |
| 20260507143201 | 9 | 321 | 8.0 | 22.5 | 0.00 | 1.35 | 0.00 | 49 | 1008.9 |
| 20260507143033 | 9 | 261 | 8.0 | 22.5 | 0.00 | 1.35 | 0.00 | 49 | 1008.9 |
| 20260507143001 | 9 | 197 | 6.4 | 22.5 | 0.00 | 1.35 | 0.00 | 48 | 1008.9 |
| 20260507142825 | 9 | 313 | 4.8 | 14.5 | 0.00 | 1.35 | 0.00 | 48 | 1009.0 |
| 20260507142739 | 9 | 227 | 6.4 | 14.5 | 0.00 | 1.35 | 0.00 | 48 | 1009.0 |
| 20260507142608 | 9 | 232 | 6.4 | 14.5 | 0.00 | 1.35 | 0.00 | 49 | 1009.0 |
| 20260507142530 | 9 | 283 | 6.4 | 14.5 | 0.00 | 1.35 | 0.00 | 48 | 1009.0 |
| 20260507142333 | 9 | 317 | 4.8 | 14.5 | 0.00 | 1.35 | 0.00 | 49 | 1009.1 |
| 20260507142257 | 9 | 266 | 6.4 | 14.5 | 0.00 | 1.35 | 0.00 | 48 | 1009.1 |
| 20260507142201 | 9 | 263 | 4.8 | 14.5 | 0.00 | 1.35 | 0.00 | 48 | 1009.1 |
| 20260507142123 | 9 | 234 | 4.8 | 14.5 | 0.00 | 1.35 | 0.00 | 48 | 1009.2 |
| 20260507141939 | 9 | 253 | 8.0 | 14.5 | 0.00 | 1.35 | 0.00 | 48 | 1009.1 |
| 20260507141833 | 9 | 287 | 6.4 | 14.5 | 0.00 | 1.35 | 0.00 | 48 | 1009.1 |
| 20260507141716 | 9 | 360 | 4.8 | 12.9 | 0.00 | 1.35 | 0.00 | 47 | 1009.1 |
| 20260507141649 | 9 | 288 | 6.4 | 14.5 | 0.00 | 1.35 | 0.00 | 47 | 1009.1 |
| 20260507141612 | 9 | 315 | 8.0 | 14.5 | 0.00 | 1.35 | 0.00 | 48 | 1009.1 |
| 20260507141515 | 9 | 329 | 4.8 | 16.1 | 0.00 | 1.35 | 0.00 | 48 | 1009.0 |
| 20260507141416 | 9 | 325 | 4.8 | 16.1 | 0.00 | 1.35 | 0.00 | 48 | 1009.1 |
| 20260507141339 | 9 | 271 | 6.4 | 16.1 | 0.00 | 1.35 | 0.00 | 47 | 1009.1 |
| 20260507141219 | 9 | 322 | 6.4 | 16.1 | 0.00 | 1.35 | 0.00 | 47 | 1009.1 |
| 20260507141141 | 9 | 302 | 6.4 | 16.1 | 0.00 | 1.35 | 0.00 | 47 | 1009.1 |
| 20260507141011 | 9 | 238 | 6.4 | 16.1 | 0.00 | 1.35 | 0.00 | 47 | 1009.1 |
| 20260507140916 | 9 | 237 | 6.4 | 16.1 | 0.00 | 1.35 | 0.00 | 47 | 1009.0 |
| 20260507140740 | 8 | 263 | 8.0 | 16.1 | 0.00 | 1.35 | 0.00 | 47 | 1009.0 |
| 20260507140640 | 8 | 231 | 4.8 | 19.3 | 0.00 | 1.35 | 0.00 | 47 | 1009.1 |
| 20260507140522 | 8 | 310 | 3.2 | 17.7 | 0.00 | 1.35 | 0.00 | 47 | 1009.1 |
| 20260507140446 | 8 | 264 | 3.2 | 17.7 | 0.00 | 1.35 | 0.00 | 47 | 1009.1 |
| 20260507140341 | 8 | 260 | 4.8 | 17.7 | 0.00 | 1.35 | 0.00 | 48 | 1009.1 |
| 20260507140223 | 8 | 240 | 6.4 | 17.7 | 0.00 | 1.35 | 0.00 | 47 | 1009.2 |
| 20260507140146 | 8 | 242 | 4.8 | 17.7 | 0.00 | 1.35 | 0.00 | 47 | 1009.2 |
| 20260507140108 | 8 | 231 | 6.4 | 17.7 | 0.00 | 1.35 | 0.00 | 47 | 1009.1 |
| 20260507140037 | 8 | 265 | 6.4 | 17.7 | 0.00 | 1.35 | 0.00 | 47 | 1009.1 |
| 20260507135918 | 8 | 301 | 8.0 | 17.7 | 0.00 | 1.50 | 0.00 | 47 | 1009.1 |
| 20260507135840 | 8 | 269 | 9.7 | 17.7 | 0.00 | 1.50 | 0.00 | 47 | 1009.1 |
| 20260507135701 | 8 | 287 | 8.0 | 17.7 | 0.00 | 1.50 | 0.00 | 46 | 1009.1 |
| 20260507135636 | 8 | 304 | 8.0 | 16.1 | 0.00 | 1.50 | 0.00 | 46 | 1009.1 |
| 20260507135506 | 8 | 342 | 6.4 | 16.1 | 0.00 | 1.50 | 0.00 | 45 | 1009.1 |
| 20260507135428 | 8 | 319 | 4.8 | 14.5 | 0.00 | 1.50 | 0.00 | 45 | 1009.1 |
| 20260507135229 | 8 | 252 | 4.8 | 16.1 | 0.00 | 1.50 | 0.00 | 44 | 1009.1 |
| 20260507135153 | 8 | 262 | 4.8 | 16.1 | 0.00 | 1.50 | 0.00 | 40 | 1009.1 |
| 20260507135036 | 8 | 304 | 4.8 | 16.1 | 0.00 | 1.50 | 0.00 | 44 | 1009.1 |
| 20260507135000 | 8 | 223 | 6.4 | 16.1 | 0.00 | 1.50 | 0.00 | 44 | 1009.1 |
| 20260507134918 | 8 | 200 | 6.4 | 16.1 | 0.00 | 1.50 | 0.00 | 44 | 1009.2 |
| 20260507134727 | 8 | 275 | 8.0 | 16.1 | 0.00 | 1.50 | 0.00 | 43 | 1009.2 |
| 20260507134642 | 8 | 290 | 9.7 | 16.1 | 0.00 | 1.50 | 0.00 | 43 | 1009.2 |
| 20260507134545 | 8 | 252 | 9.7 | 16.1 | 0.00 | 1.50 | 0.00 | 44 | 1009.2 |
| 20260507134427 | 8 | 312 | 8.0 | 14.5 | 0.00 | 1.50 | 0.00 | 43 | 1009.2 |
| 20260507134351 | 8 | 271 | 8.0 | 14.5 | 0.00 | 1.50 | 0.00 | 43 | 1009.2 |
| 20260507134304 | 8 | 296 | 8.0 | 12.9 | 0.00 | 1.50 | 0.00 | 42 | 1009.2 |
| 20260507134133 | 8 | 285 | 6.4 | 9.7 | 0.00 | 1.50 | 0.00 | 41 | 1009.1 |
| 20260507134035 | 8 | 267 | 4.8 | 9.7 | 0.00 | 1.50 | 0.00 | 40 | 1009.2 |
| 20260507133843 | 8 | 208 | 4.8 | 12.9 | 0.00 | 1.50 | 0.00 | 40 | 1009.1 |
| 20260507133744 | 8 | 205 | 6.4 | 12.9 | 0.00 | 1.50 | 0.00 | 38 | 1009.1 |
| 20260507133627 | 8 | 161 | 4.8 | 12.9 | 0.00 | 1.50 | 0.00 | 36 | 1009.0 |
| 20260507133549 | 8 | 153 | 4.8 | 12.9 | 0.00 | 1.50 | 0.00 | 36 | 1009.0 |
| 20260507133424 | 8 | 279 | 6.4 | 12.9 | 0.00 | 1.50 | 0.00 | 39 | 1009.1 |